M I D A S
Marine Information and Data Acquisition System
Tripno 2114 of the Zeeleeuw from 2011-06-01 08:00:57 to 2011-06-01 09:49:34
Back to CruiseResearch ActivitiesStationsMapUnderway DataData graphs

EquipmentUnitsComment
TimeDGPSUTC
LatitudeDGPSDM.mWGS84
LongitudeDGPSDM.mWGS84
TemperatureSBE03/SBE38deg celciusITS90
ConductivitySBE21S/mITS90
SalinitySBE21 Practical Salinity Units
ChlorophylAChelsea fluorimeterg/lCalibrated in Aceton
Missing or incorrect values are displayed as -999
Sea surface data collected by the RV Zeeleeuw from 2011-06-01 07:30:13 to 2011-06-01 09:49:34
                                                                                    Next 1000 lines
Time Latitude Longitude Temperature Conductivity Salinity ChlorophylA
2011-06-01 07:30:23 51°13.634 2°56.019 18.6644 0.061012 0.351331 -3.020363
2011-06-01 07:30:28 51°13.634 2°56.019 18.5989 0.061012 0.351331 -3.020363
2011-06-01 07:30:33 51°13.634 2°56.017 18.6227 0.061012 0.351331 -3.020363
2011-06-01 07:30:38 51°13.634 2°56.014 18.5509 0.061012 0.351337 -3.020363
2011-06-01 07:30:43 51°13.635 2°56.01 18.6681 0.061012 0.351337 -3.020363
2011-06-01 07:30:48 51°13.636 2°56.006 18.6503 0.061012 0.351337 -3.020363
2011-06-01 07:30:53 51°13.637 2°56 18.6632 0.061012 0.351344 -3.020363
2011-06-01 07:30:58 51°13.638 2°55.994 18.6731 0.061012 0.351344 -3.020363
2011-06-01 07:31:04 51°13.64 2°55.985 18.6829 0.061012 0.351337 -3.020363
2011-06-01 07:31:08 51°13.642 2°55.979 18.6696 0.061012 0.351344 -3.020363
2011-06-01 07:31:13 51°13.644 2°55.971 18.6718 0.061012 0.351344 -3.020363
2011-06-01 07:31:18 51°13.646 2°55.962 18.6734 0.061012 0.351344 -3.020363
2011-06-01 07:31:23 51°13.648 2°55.953 18.6872 0.061012 0.351344 -3.020363
2011-06-01 07:31:28 51°13.65 2°55.944 18.6966 0.061012 0.351344 -3.020363
2011-06-01 07:31:33 51°13.653 2°55.935 18.7012 0.061012 0.351344 -3.020363
2011-06-01 07:31:38 51°13.655 2°55.927 18.6999 0.061012 0.351344 -3.020363
2011-06-01 07:31:43 51°13.656 2°55.918 18.6909 0.061012 0.351344 -3.020363
2011-06-01 07:31:48 51°13.658 2°55.91 18.6963 0.061012 0.351344 -3.020363
2011-06-01 07:31:53 51°13.66 2°55.902 18.6977 0.061012 0.351344 -3.020363
2011-06-01 07:31:58 51°13.662 2°55.893 18.705 0.061012 0.351351 -3.020363
2011-06-01 07:32:04 51°13.664 2°55.884 18.6953 0.061012 0.351351 -3.020363
2011-06-01 07:32:09 51°13.665 2°55.876 18.6947 0.061012 0.351351 -3.020363
2011-06-01 07:32:14 51°13.667 2°55.869 18.6893 0.061012 0.351357 -3.020363
2011-06-01 07:32:18 51°13.668 2°55.863 18.6938 0.061012 0.351357 -3.020363
2011-06-01 07:32:24 51°13.671 2°55.853 18.692 0.061012 0.351357 -3.020363
2011-06-01 07:32:29 51°13.673 2°55.845 18.6925 0.061012 0.351357 -3.020363
2011-06-01 07:32:34 51°13.675 2°55.837 18.6931 0.061012 0.351364 -3.020363
2011-06-01 07:32:39 51°13.677 2°55.829 18.7144 0.061012 0.351357 -3.020363
2011-06-01 07:32:44 51°13.679 2°55.821 18.7004 0.061012 0.351364 -3.020363
2011-06-01 07:32:49 51°13.681 2°55.813 18.7035 0.061012 0.351364 -3.020363
2011-06-01 07:32:54 51°13.683 2°55.805 18.6907 0.061012 0.351364 -3.020363
2011-06-01 07:32:59 51°13.684 2°55.797 18.7008 0.061012 0.351371 -3.020363
2011-06-01 07:33:04 51°13.686 2°55.789 18.7003 0.061012 0.351371 -3.020363
2011-06-01 07:33:09 51°13.688 2°55.782 18.7015 0.061012 0.351371 -3.020363
2011-06-01 07:33:14 51°13.69 2°55.775 18.7014 0.061012 0.351371 -3.020363
2011-06-01 07:33:19 51°13.692 2°55.768 18.7002 0.061012 0.351377 -3.020363
2011-06-01 07:33:24 51°13.694 2°55.762 18.6975 0.061012 0.351377 -3.020363
2011-06-01 07:33:29 51°13.695 2°55.756 18.6984 0.061012 0.351377 -3.020363
2011-06-01 07:33:33 51°13.696 2°55.751 18.6964 0.061012 0.351377 -3.020363
2011-06-01 07:33:38 51°13.698 2°55.745 18.6991 0.061012 0.351377 -3.020363
2011-06-01 07:33:43 51°13.699 2°55.74 18.6884 0.061012 0.351384 -3.020363
2011-06-01 07:33:48 51°13.7 2°55.735 18.6857 0.061012 0.351377 -3.020363
2011-06-01 07:33:53 51°13.701 2°55.731 18.688 0.061012 0.351377 -3.020363
2011-06-01 07:33:58 51°13.702 2°55.728 18.7032 0.061012 0.351384 -3.020363
2011-06-01 07:34:02 51°13.702 2°55.726 18.7125 0.061012 0.351384 -3.020363
2011-06-01 07:34:07 51°13.702 2°55.725 18.7424 0.061012 0.351384 -3.020363
2011-06-01 07:34:12 51°13.703 2°55.724 18.7637 0.061012 0.351384 -3.020363
2011-06-01 07:34:17 51°13.703 2°55.726 18.768 0.061012 0.351384 -3.020363
2011-06-01 07:34:22 51°13.703 2°55.729 18.7783 0.061012 0.351384 -3.020363
2011-06-01 07:34:26 51°13.703 2°55.733 18.7589 0.061012 0.351391 -3.020363
2011-06-01 07:34:31 51°13.704 2°55.737 18.6932 0.061012 0.351397 -3.020363
2011-06-01 07:34:36 51°13.705 2°55.74 18.6953 0.061012 0.351391 -3.020363
2011-06-01 07:34:41 51°13.706 2°55.743 18.699 0.061012 0.351391 -3.020363
2011-06-01 07:34:46 51°13.706 2°55.744 18.7129 0.061012 0.351391 -3.020363
2011-06-01 07:34:50 51°13.706 2°55.745 18.7068 0.061012 0.351391 -3.020363
2011-06-01 07:34:56 51°13.705 2°55.745 18.6594 0.061012 0.351391 -3.020363
2011-06-01 07:35:01 51°13.705 2°55.743 18.7304 0.061012 0.351391 -3.020363
2011-06-01 07:35:05 51°13.704 2°55.741 18.7199 0.061012 0.351391 -3.020363
2011-06-01 07:35:10 51°13.703 2°55.74 18.7196 0.061012 0.351391 -3.020363
2011-06-01 07:35:15 51°13.702 2°55.738 18.7191 0.061012 0.351397 -3.020363
2011-06-01 07:35:20 51°13.701 2°55.736 18.7347 0.061012 0.351397 -3.020363
2011-06-01 07:35:25 51°13.701 2°55.736 18.7602 0.061012 0.351391 -3.020363
2011-06-01 07:35:30 51°13.701 2°55.737 18.7767 0.061012 0.351397 -3.020363
2011-06-01 07:35:36 51°13.703 2°55.74 18.787 0.061012 0.351397 -3.020363
2011-06-01 07:35:42 51°13.706 2°55.743 18.7774 0.061012 0.351404 -3.020363
2011-06-01 07:35:46 51°13.709 2°55.745 18.7739 0.061012 0.351411 -3.020363
2011-06-01 07:35:51 51°13.712 2°55.747 18.7455 0.061012 0.351411 -3.020363
2011-06-01 07:35:56 51°13.715 2°55.75 18.7357 0.061012 0.351417 -3.020363
2011-06-01 07:36:01 51°13.718 2°55.751 18.6713 0.061012 0.351417 -3.020363
2011-06-01 07:36:06 51°13.721 2°55.752 18.6434 0.061012 0.351417 -3.020363
2011-06-01 07:36:10 51°13.722 2°55.753 18.6906 0.061012 0.351424 -3.020363
2011-06-01 07:36:15 51°13.723 2°55.754 18.7124 0.061012 0.351424 -3.020363
2011-06-01 07:36:20 51°13.723 2°55.754 18.6816 0.061012 0.351424 -3.020363
2011-06-01 07:36:26 51°13.722 2°55.755 18.6661 0.061012 0.351417 -3.020363
2011-06-01 07:36:30 51°13.722 2°55.755 18.7075 0.061012 0.351417 -3.020363
2011-06-01 07:36:35 51°13.72 2°55.756 18.7252 0.061012 0.351411 -3.020363
2011-06-01 07:36:40 51°13.718 2°55.757 18.7298 0.061012 0.351411 -3.020363
2011-06-01 07:36:46 51°13.715 2°55.758 18.7133 0.061012 0.351411 -3.020363
2011-06-01 07:36:51 51°13.713 2°55.758 18.7206 0.061012 0.351411 -3.020363
2011-06-01 07:36:57 51°13.71 2°55.759 18.7127 0.061012 0.351411 -3.020363
2011-06-01 07:37:02 51°13.709 2°55.76 18.7245 0.061012 0.351411 -3.020363
2011-06-01 07:37:08 51°13.708 2°55.76 18.7242 0.061012 0.351411 -3.020363
2011-06-01 07:37:13 51°13.708 2°55.761 18.7313 0.061012 0.351411 -3.020363
2011-06-01 07:37:18 51°13.708 2°55.761 18.7363 0.061012 0.351417 -3.020363
2011-06-01 07:37:24 51°13.709 2°55.76 18.7416 0.061012 0.351417 -3.020363
2011-06-01 07:37:29 51°13.711 2°55.76 18.7565 0.061012 0.351411 -3.020363
2011-06-01 07:37:33 51°13.713 2°55.759 18.753 0.061012 0.351417 -3.020363
2011-06-01 07:37:38 51°13.716 2°55.757 18.7728 0.061012 0.351417 -3.020363
2011-06-01 07:37:44 51°13.721 2°55.754 18.771 0.061012 0.351417 -3.020363
2011-06-01 07:37:48 51°13.725 2°55.75 18.7632 0.061012 0.351417 -3.020363
2011-06-01 07:37:53 51°13.731 2°55.745 18.7424 0.061012 0.351417 -3.020363
2011-06-01 07:37:58 51°13.736 2°55.739 18.7145 0.061012 0.351417 -3.020363
2011-06-01 07:38:03 51°13.742 2°55.734 18.7344 0.061012 0.351417 -3.020363
2011-06-01 07:38:08 51°13.748 2°55.727 18.7337 0.061012 0.351417 -3.020363
2011-06-01 07:38:13 51°13.753 2°55.721 18.7345 0.061012 0.351417 -3.020363
2011-06-01 07:38:18 51°13.758 2°55.714 18.7065 0.061012 0.351417 -3.020363
2011-06-01 07:38:22 51°13.763 2°55.708 18.7047 0.061012 0.351417 -3.020363
2011-06-01 07:38:27 51°13.768 2°55.701 18.7046 0.061012 0.351424 -3.020363
2011-06-01 07:38:32 51°13.774 2°55.694 18.705 0.061012 0.351424 -3.020363
2011-06-01 07:38:37 51°13.779 2°55.686 18.7033 0.061012 0.351424 -3.020363
2011-06-01 07:38:42 51°13.785 2°55.679 18.6972 0.061012 0.351431 -3.020363
2011-06-01 07:38:47 51°13.79 2°55.672 18.6842 0.061012 0.351431 -3.020363
2011-06-01 07:38:52 51°13.796 2°55.665 18.6726 0.061012 0.351431 -3.020363
2011-06-01 07:38:56 51°13.801 2°55.66 18.6679 0.061012 0.351431 -3.020363
2011-06-01 07:39:01 51°13.807 2°55.653 18.6664 0.061012 0.351437 -3.020363
2011-06-01 07:39:06 51°13.813 2°55.647 18.67 0.061012 0.351437 -3.020363
2011-06-01 07:39:11 51°13.82 2°55.641 18.677 0.061012 0.351437 -3.020363
2011-06-01 07:39:16 51°13.826 2°55.636 18.6775 0.061012 0.351437 -3.020363
2011-06-01 07:39:21 51°13.833 2°55.63 18.679 0.061012 0.351437 -3.020363
2011-06-01 07:39:26 51°13.839 2°55.625 18.687 0.061012 0.351437 -3.020363
2011-06-01 07:39:30 51°13.845 2°55.621 18.7028 0.061012 0.351437 -3.020363
2011-06-01 07:39:35 51°13.851 2°55.616 18.7155 0.061012 0.351437 -3.020363
2011-06-01 07:39:40 51°13.858 2°55.61 18.7186 0.061012 0.351437 -3.020363
2011-06-01 07:39:45 51°13.865 2°55.605 18.7218 0.061012 0.351437 -3.020363
2011-06-01 07:39:50 51°13.872 2°55.6 18.7225 0.061012 0.351444 -3.020363
2011-06-01 07:39:54 51°13.878 2°55.597 18.7251 0.061012 0.351444 -3.020363
2011-06-01 07:40:00 51°13.886 2°55.591 18.7258 0.061012 0.351444 -3.020363
2011-06-01 07:40:04 51°13.892 2°55.587 18.7273 0.061012 0.351444 -3.020363
2011-06-01 07:40:10 51°13.9 2°55.581 18.729 0.061012 0.351451 -3.020363
2011-06-01 07:40:14 51°13.906 2°55.577 18.7306 0.061012 0.351451 -3.020363
2011-06-01 07:40:19 51°13.913 2°55.573 18.735 0.061012 0.351451 -3.020363
2011-06-01 07:40:24 51°13.92 2°55.569 18.7343 0.061012 0.351451 -3.020363
2011-06-01 07:40:30 51°13.929 2°55.563 18.7398 0.061012 0.351451 -3.020363
2011-06-01 07:40:34 51°13.935 2°55.559 18.7403 0.061012 0.351457 -3.020363
2011-06-01 07:40:40 51°13.943 2°55.554 18.748 0.061012 0.351457 -3.020363
2011-06-01 07:40:45 51°13.951 2°55.55 18.7537 0.061012 0.351457 -3.020363
2011-06-01 07:40:50 51°13.958 2°55.545 18.7546 0.061012 0.351457 -3.020363
2011-06-01 07:40:54 51°13.964 2°55.541 18.7541 0.061012 0.351464 -3.020363
2011-06-01 07:40:59 51°13.971 2°55.536 18.7392 0.061012 0.351464 -3.020363
2011-06-01 07:41:04 51°13.977 2°55.531 18.7439 0.061012 0.351464 -3.020363
2011-06-01 07:41:10 51°13.986 2°55.525 18.7454 0.061012 0.351464 -3.020363
2011-06-01 07:41:14 51°13.992 2°55.521 18.747 0.061012 0.351464 -3.020363
2011-06-01 07:41:19 51°13.998 2°55.516 18.7487 0.061012 0.351464 -3.020363
2011-06-01 07:41:24 51°14.006 2°55.511 18.749 0.061012 0.351464 -3.020363
2011-06-01 07:41:30 51°14.014 2°55.506 18.7495 0.061012 0.351464 -3.020363
2011-06-01 07:41:34 51°14.02 2°55.502 18.7547 0.061012 0.351464 -3.020363
2011-06-01 07:41:39 51°14.027 2°55.497 18.7697 0.061012 0.351464 -3.020363
2011-06-01 07:41:44 51°14.034 2°55.491 18.7694 0.061012 0.351464 -3.020363
2011-06-01 07:41:50 51°14.043 2°55.485 18.7646 0.061012 0.351464 -3.020363
2011-06-01 07:41:54 51°14.049 2°55.481 18.7619 0.061012 0.351464 -3.020363
2011-06-01 07:41:59 51°14.056 2°55.475 18.7504 0.061012 0.351464 -3.020363
2011-06-01 07:42:05 51°14.065 2°55.468 18.7382 0.061012 0.351471 -3.020363
2011-06-01 07:42:10 51°14.073 2°55.462 18.7459 0.061012 0.351464 -3.020363
2011-06-01 07:42:14 51°14.079 2°55.458 18.7626 0.061012 0.351464 -3.020363
2011-06-01 07:42:20 51°14.089 2°55.451 18.7753 0.061012 0.351464 -3.020363
2011-06-01 07:42:25 51°14.097 2°55.445 18.7724 0.061012 0.351471 -3.020363
2011-06-01 07:42:30 51°14.105 2°55.439 18.7658 0.061012 0.351471 -3.020363
2011-06-01 07:42:34 51°14.111 2°55.434 18.755 0.061012 0.351477 -3.020363
2011-06-01 07:42:40 51°14.121 2°55.426 18.7469 0.061012 0.351477 -3.020363
2011-06-01 07:42:44 51°14.127 2°55.421 18.7478 0.061012 0.351477 -3.020363
2011-06-01 07:42:50 51°14.137 2°55.413 18.7681 0.061012 0.351477 -3.020363
2011-06-01 07:42:54 51°14.143 2°55.407 18.7869 0.061012 0.351477 -3.020363
2011-06-01 07:43:00 51°14.154 2°55.399 18.7993 0.061012 0.351477 -3.020363
2011-06-01 07:43:05 51°14.162 2°55.392 18.783 0.061012 0.351477 -3.020363
2011-06-01 07:43:10 51°14.172 2°55.384 18.7786 0.061012 0.351477 -3.020363
2011-06-01 07:43:16 51°14.184 2°55.374 18.7868 0.061012 0.351477 -3.020363
2011-06-01 07:43:21 51°14.194 2°55.365 18.7845 0.061012 0.351477 -3.020363
2011-06-01 07:43:26 51°14.204 2°55.356 18.7811 0.061012 0.351477 -3.020363
2011-06-01 07:43:31 51°14.214 2°55.346 18.7687 0.061012 0.351477 -3.020363
2011-06-01 07:43:36 51°14.224 2°55.336 18.7322 0.061012 0.351477 -3.020363
2011-06-01 07:43:41 51°14.235 2°55.326 18.7653 0.061012 0.351477 -3.020363
2011-06-01 07:43:46 51°14.246 2°55.315 18.7766 0.061012 0.351477 -3.020363
2011-06-01 07:43:50 51°14.255 2°55.307 18.7831 0.061012 0.351477 -3.020363
2011-06-01 07:43:55 51°14.265 2°55.295 18.7519 0.061012 0.351484 -3.020363
2011-06-01 07:44:01 51°14.278 2°55.281 18.7526 0.061012 0.351484 -3.020363
2011-06-01 07:44:05 51°14.287 2°55.272 18.7333 0.061012 0.351484 -3.020363
2011-06-01 07:44:10 51°14.297 2°55.26 18.7231 0.061012 0.351484 -3.020363
2011-06-01 07:44:16 51°14.31 2°55.246 18.7051 0.061012 0.351484 -3.020363
2011-06-01 07:44:21 51°14.321 2°55.235 18.71 0.061012 0.351484 -3.020363
2011-06-01 07:44:26 51°14.333 2°55.223 18.7296 0.061012 0.351484 -3.020363
2011-06-01 07:44:30 51°14.342 2°55.214 18.748 0.061012 0.351484 -3.020363
2011-06-01 07:44:35 51°14.354 2°55.203 18.7671 0.061012 0.351484 -3.020363
2011-06-01 07:44:40 51°14.366 2°55.19 18.743 0.061012 0.351484 -3.020363
2011-06-01 07:44:45 51°14.378 2°55.178 18.723 0.061012 0.351491 -3.020363
2011-06-01 07:44:50 51°14.39 2°55.166 18.792 0.061012 0.351491 -3.020363
2011-06-01 07:44:55 51°14.403 2°55.153 18.7622 0.061012 0.351484 -3.020363
2011-06-01 07:45:00 51°14.416 2°55.14 18.7719 0.061012 0.351491 -3.020363
2011-06-01 07:45:06 51°14.43 2°55.123 18.7195 0.061012 0.351497 -3.020363
2011-06-01 07:45:10 51°14.441 2°55.113 18.7558 0.061012 0.351491 -3.020363
2011-06-01 07:45:15 51°14.454 2°55.098 18.7286 0.061012 0.351491 -3.020363
2011-06-01 07:45:20 51°14.466 2°55.084 18.7489 0.061012 0.351491 -3.020363
2011-06-01 07:45:26 51°14.481 2°55.067 18.7091 0.061012 0.351497 -3.020363
2011-06-01 07:45:30 51°14.491 2°55.055 18.7021 0.061012 0.351491 -3.020363
2011-06-01 07:45:35 51°14.504 2°55.041 18.7778 0.061012 0.351491 -3.020363
2011-06-01 07:45:40 51°14.517 2°55.027 18.8198 0.061012 0.351497 -3.020363
2011-06-01 07:45:45 51°14.529 2°55.01 18.7426 0.061012 0.351497 -3.020363
2011-06-01 07:45:50 51°14.54 2°54.992 18.7494 0.061012 0.351504 -3.020363
2011-06-01 07:45:54 51°14.549 2°54.978 18.7476 0.061012 0.351497 -3.020363
2011-06-01 07:46:00 51°14.563 2°54.957 18.7642 0.061012 0.351491 -3.020363
2011-06-01 07:46:05 51°14.574 2°54.939 18.7204 0.061012 0.351491 -3.020363
2011-06-01 07:46:10 51°14.585 2°54.921 18.7209 0.061012 0.351491 -3.020363
2011-06-01 07:46:14 51°14.594 2°54.907 18.7376 0.061012 0.351491 -3.020363
2011-06-01 07:46:19 51°14.606 2°54.889 18.7193 0.061012 0.351491 -3.020363
2011-06-01 07:46:25 51°14.62 2°54.867 18.738 0.061012 0.351491 -3.020363
2011-06-01 07:46:30 51°14.632 2°54.849 18.723 0.061012 0.351491 -3.020363
2011-06-01 07:46:34 51°14.642 2°54.835 18.6685 0.061012 0.351497 -3.020363
2011-06-01 07:46:40 51°14.657 2°54.813 18.7206 0.061012 0.351497 -3.020363
2011-06-01 07:46:45 51°14.67 2°54.796 18.6683 0.061012 0.351497 -3.020363
2011-06-01 07:46:50 51°14.683 2°54.778 18.6913 0.061012 0.351497 -3.020363
2011-06-01 07:46:54 51°14.694 2°54.764 18.6833 0.061012 0.351504 -3.020363
2011-06-01 07:47:00 51°14.711 2°54.744 18.6942 0.061012 0.351511 -3.020363
2011-06-01 07:47:05 51°14.725 2°54.728 18.7037 0.061012 0.351517 -3.020363
2011-06-01 07:47:10 51°14.74 2°54.713 18.7196 0.061012 0.351517 -3.020363
2011-06-01 07:47:14 51°14.752 2°54.701 18.7205 0.061012 0.351517 -3.020363
2011-06-01 07:47:19 51°14.768 2°54.687 18.7452 0.061012 0.351517 -3.020363
2011-06-01 07:47:24 51°14.783 2°54.672 18.7414 0.061012 0.351517 -3.020363
2011-06-01 07:47:30 51°14.801 2°54.655 18.7469 0.061012 0.351517 -3.020363
2011-06-01 07:47:34 51°14.813 2°54.644 18.7282 0.061012 0.351517 -3.020363
2011-06-01 07:47:40 51°14.831 2°54.627 18.7343 0.061012 0.351517 -3.020363
2011-06-01 07:47:45 51°14.847 2°54.613 18.7561 0.061012 0.351511 -3.020363
2011-06-01 07:47:50 51°14.862 2°54.598 18.7563 0.061012 0.351511 -3.020363
2011-06-01 07:47:54 51°14.874 2°54.587 18.7651 0.061012 0.351517 -3.020363
2011-06-01 07:47:59 51°14.889 2°54.572 18.7495 0.061012 0.351517 -3.020363
2011-06-01 07:48:04 51°14.904 2°54.557 18.7701 0.061012 0.351517 -3.020363
2011-06-01 07:48:10 51°14.921 2°54.538 18.7573 0.061012 0.351517 -3.020363
2011-06-01 07:48:14 51°14.933 2°54.525 18.7398 0.061012 0.351524 -3.020363
2011-06-01 07:48:20 51°14.95 2°54.505 18.7608 0.061012 0.351524 -3.020363
2011-06-01 07:48:25 51°14.964 2°54.488 18.8179 0.061012 0.351524 -3.020363
2011-06-01 07:48:30 51°14.977 2°54.47 18.8791 0.061012 0.351531 -3.020363
2011-06-01 07:48:34 51°14.987 2°54.454 18.7726 0.061012 0.351544 -3.020363
2011-06-01 07:48:39 51°14.998 2°54.432 18.758 0.061012 0.351537 -3.020363
2011-06-01 07:48:45 51°15.011 2°54.405 18.7468 0.061012 0.351537 -3.020363
2011-06-01 07:48:50 51°15.021 2°54.382 18.7502 0.061012 0.351537 -3.020363
2011-06-01 07:48:54 51°15.029 2°54.363 18.738 0.061012 0.351531 -3.020363
2011-06-01 07:49:00 51°15.04 2°54.335 18.7402 0.061012 0.351531 -3.020363
2011-06-01 07:49:05 51°15.048 2°54.31 18.7167 0.061012 0.351531 -3.020363
2011-06-01 07:49:10 51°15.056 2°54.285 18.7497 0.061012 0.351531 -3.020363
2011-06-01 07:49:14 51°15.063 2°54.265 18.7365 0.061012 0.351531 -3.020363
2011-06-01 07:49:20 51°15.072 2°54.236 18.7434 0.061012 0.351524 -3.020363
2011-06-01 07:49:25 51°15.079 2°54.21 18.7289 0.061012 0.351531 -3.020363
2011-06-01 07:49:30 51°15.086 2°54.185 18.7167 0.061012 0.351531 -3.020363
2011-06-01 07:49:34 51°15.092 2°54.164 18.7694 0.061012 0.351531 -3.020363
2011-06-01 07:49:39 51°15.098 2°54.138 18.8041 0.061012 0.351531 -3.020363
2011-06-01 07:49:44 51°15.104 2°54.111 18.8006 0.061012 0.351551 -3.020363
2011-06-01 07:49:50 51°15.108 2°54.077 18.8178 0.061012 0.351551 -3.020363
2011-06-01 07:49:54 51°15.111 2°54.054 18.8637 0.061012 0.351551 -3.020363
2011-06-01 07:49:59 51°15.112 2°54.025 18.7962 0.061012 0.351564 -3.020363
2011-06-01 07:50:05 51°15.111 2°53.99 18.7495 0.061012 0.351571 -3.020363
2011-06-01 07:50:10 51°15.108 2°53.961 18.7116 0.061012 0.351571 -3.020363
2011-06-01 07:50:14 51°15.106 2°53.938 18.7219 0.061012 0.351571 -3.020363
2011-06-01 07:50:19 51°15.102 2°53.909 18.7379 0.061012 0.351564 -3.020363
2011-06-01 07:50:24 51°15.099 2°53.88 18.7382 0.061012 0.351557 -3.020363
2011-06-01 07:50:30 51°15.093 2°53.845 18.7432 0.061012 0.351557 -3.020363
2011-06-01 07:50:34 51°15.089 2°53.822 18.7326 0.061012 0.351557 -3.020363
2011-06-01 07:50:40 51°15.083 2°53.787 18.7414 0.061012 0.351551 -3.020363
2011-06-01 07:50:45 51°15.077 2°53.758 18.7061 0.061012 0.351551 -3.020363
2011-06-01 07:50:49 51°15.072 2°53.736 18.7214 0.061012 0.351551 -3.020363
2011-06-01 07:50:54 51°15.066 2°53.707 18.7272 0.061012 0.351544 -3.020363
2011-06-01 07:51:00 51°15.059 2°53.673 18.7415 0.061012 0.351544 -3.020363
2011-06-01 07:51:04 51°15.054 2°53.65 18.7697 0.061012 0.351551 -3.020363
2011-06-01 07:51:10 51°15.045 2°53.616 18.7352 0.061012 0.351557 -3.020363
2011-06-01 07:51:14 51°15.039 2°53.594 18.7363 0.061012 0.351557 -3.020363
2011-06-01 07:51:20 51°15.029 2°53.562 18.7013 0.061012 0.351557 -3.020363
2011-06-01 07:51:24 51°15.022 2°53.54 18.7516 0.061012 0.351564 -3.020363
2011-06-01 07:51:30 51°15.011 2°53.509 18.7191 0.061012 0.351564 -3.020363
2011-06-01 07:51:34 51°15.003 2°53.488 18.7226 0.061012 0.351564 -3.020363
2011-06-01 07:51:40 51°14.991 2°53.456 18.7338 0.061012 0.351564 -3.020363
2011-06-01 07:51:45 51°14.981 2°53.43 18.7 0.061012 0.351564 -3.020363
2011-06-01 07:51:50 51°14.971 2°53.404 18.7153 0.061012 0.351564 -3.020363
2011-06-01 07:51:54 51°14.963 2°53.384 18.6648 0.061012 0.351564 -3.020363
2011-06-01 07:51:59 51°14.953 2°53.358 18.6946 0.061012 0.351557 -3.020363
2011-06-01 07:52:05 51°14.942 2°53.326 18.6729 0.061012 0.351557 -3.020363
2011-06-01 07:52:10 51°14.933 2°53.299 18.6784 0.061012 0.351557 -3.020363
2011-06-01 07:52:14 51°14.927 2°53.277 18.6341 0.061012 0.351557 -3.020363
2011-06-01 07:52:19 51°14.919 2°53.25 18.6961 0.061012 0.351557 -3.020363
2011-06-01 07:52:25 51°14.911 2°53.216 18.6918 0.061012 0.351564 -3.020363
2011-06-01 07:52:30 51°14.905 2°53.187 18.7056 0.061012 0.351564 -3.020363
2011-06-01 07:52:34 51°14.9 2°53.164 18.7123 0.061012 0.351571 -3.020363
2011-06-01 07:52:39 51°14.895 2°53.135 18.7099 0.061012 0.351577 -3.020363
2011-06-01 07:52:44 51°14.889 2°53.107 18.7191 0.061012 0.351577 -3.020363
2011-06-01 07:52:49 51°14.884 2°53.078 18.7238 0.061012 0.351577 -3.020363
2011-06-01 07:52:54 51°14.879 2°53.049 18.7162 0.061012 0.351584 -3.020363
2011-06-01 07:52:59 51°14.874 2°53.02 18.726 0.061012 0.351591 -3.020363
2011-06-01 07:53:05 51°14.868 2°52.985 18.7369 0.061012 0.351591 -3.020363
2011-06-01 07:53:10 51°14.864 2°52.956 18.7271 0.061012 0.351597 -3.020363
2011-06-01 07:53:14 51°14.86 2°52.932 18.7294 0.061012 0.351597 -3.020363
2011-06-01 07:53:20 51°14.854 2°52.897 18.7601 0.061012 0.351597 -3.020363
2011-06-01 07:53:25 51°14.85 2°52.868 18.7354 0.061012 0.351591 -3.020363
2011-06-01 07:53:30 51°14.845 2°52.839 18.7591 0.061012 0.351591 -3.020363
2011-06-01 07:53:34 51°14.841 2°52.816 18.7429 0.061012 0.351591 -3.020363
2011-06-01 07:53:39 51°14.836 2°52.787 18.7546 0.061012 0.351591 -3.020363
2011-06-01 07:53:45 51°14.83 2°52.752 18.7439 0.061012 0.351591 -3.020363
2011-06-01 07:53:50 51°14.824 2°52.723 18.7494 0.061012 0.351591 -3.020363
2011-06-01 07:53:54 51°14.82 2°52.7 18.744 0.061012 0.351591 -3.020363
2011-06-01 07:53:58 51°14.816 2°52.677 18.7697 0.061012 0.351591 -3.020363
2011-06-01 07:54:05 51°14.808 2°52.637 18.7519 0.061012 0.351597 -3.020363
2011-06-01 07:54:10 51°14.802 2°52.608 18.7665 0.061012 0.351604 -3.020363
2011-06-01 07:54:14 51°14.797 2°52.586 18.7213 0.061012 0.351604 -3.020363
2011-06-01 07:54:19 51°14.79 2°52.558 18.7389 0.061012 0.351604 -3.020363
2011-06-01 07:54:25 51°14.781 2°52.524 18.7083 0.061012 0.351611 -3.020363
2011-06-01 07:54:30 51°14.774 2°52.497 18.7587 0.061012 0.351611 -3.020363
2011-06-01 07:54:34 51°14.768 2°52.475 18.7493 0.061012 0.351611 -3.020363
2011-06-01 07:54:39 51°14.76 2°52.447 18.7325 0.061012 0.351611 -3.020363
2011-06-01 07:54:44 51°14.752 2°52.419 18.7609 0.061012 0.351611 -3.020363
2011-06-01 07:54:50 51°14.744 2°52.386 18.734 0.061012 0.351611 -3.020363
2011-06-01 07:54:54 51°14.738 2°52.364 18.7208 0.061012 0.351611 -3.020363
2011-06-01 07:55:00 51°14.729 2°52.331 18.7573 0.061012 0.351611 -3.020363
2011-06-01 07:55:05 51°14.722 2°52.302 18.7588 0.061012 0.351611 -3.020363
2011-06-01 07:55:10 51°14.715 2°52.274 18.7743 0.061012 0.351611 -3.020363
2011-06-01 07:55:14 51°14.709 2°52.252 18.7509 0.061012 0.351611 -3.020363
2011-06-01 07:55:19 51°14.702 2°52.225 18.7477 0.061012 0.351611 -3.020363
2011-06-01 07:55:24 51°14.694 2°52.197 18.7189 0.061012 0.351617 -3.020363
2011-06-01 07:55:29 51°14.687 2°52.172 18.776 0.061012 0.351624 -3.020363
2011-06-01 07:55:34 51°14.68 2°52.147 18.7506 0.061012 0.351631 -3.020363
2011-06-01 07:55:39 51°14.672 2°52.124 18.7547 0.061012 0.351631 -3.020363
2011-06-01 07:55:44 51°14.665 2°52.103 18.7916 0.061012 0.351631 -3.020363
2011-06-01 07:55:49 51°14.658 2°52.083 18.7918 0.061012 0.351631 -3.020363
2011-06-01 07:55:55 51°14.649 2°52.062 18.79 0.061012 0.351631 -3.020363
2011-06-01 07:55:58 51°14.644 2°52.052 18.7942 0.061012 0.351631 -3.020363
2011-06-01 07:56:04 51°14.636 2°52.033 18.789 0.061012 0.351638 -3.020363
2011-06-01 07:56:09 51°14.628 2°52.018 18.7963 0.061012 0.351638 -3.020363
2011-06-01 07:56:14 51°14.621 2°52.005 18.7918 0.061012 0.351638 -3.020363
2011-06-01 07:56:19 51°14.614 2°51.993 18.7983 0.061012 0.351638 -3.020363
2011-06-01 07:56:25 51°14.606 2°51.978 18.8058 0.061012 0.351638 -3.020363
2011-06-01 07:56:30 51°14.599 2°51.967 18.7819 0.061012 0.351638 -3.020363
2011-06-01 07:56:35 51°14.593 2°51.956 18.7903 0.061012 0.351638 -3.020363
2011-06-01 07:56:40 51°14.587 2°51.946 18.7977 0.061012 0.351631 -3.020363
2011-06-01 07:56:45 51°14.58 2°51.936 18.8098 0.061012 0.351638 -3.020363
2011-06-01 07:56:50 51°14.574 2°51.926 18.7939 0.061012 0.351638 -3.020363
2011-06-01 07:56:55 51°14.569 2°51.916 18.7892 0.061012 0.351638 -3.020363
2011-06-01 07:57:00 51°14.563 2°51.906 18.7895 0.061012 0.351638 -3.020363
2011-06-01 07:57:05 51°14.558 2°51.896 18.804 0.061012 0.351644 -3.020363
2011-06-01 07:57:10 51°14.552 2°51.886 18.7866 0.061012 0.351644 -3.020363
2011-06-01 07:57:15 51°14.547 2°51.876 18.8005 0.061012 0.351644 -3.020363
2011-06-01 07:57:20 51°14.542 2°51.866 18.7928 0.061012 0.351644 -3.020363
2011-06-01 07:57:25 51°14.537 2°51.856 18.7983 0.061012 0.351651 -3.020363
2011-06-01 07:57:30 51°14.532 2°51.845 18.7993 0.061012 0.351651 -3.020363
2011-06-01 07:57:35 51°14.528 2°51.835 18.813 0.061012 0.351651 -3.020363
2011-06-01 07:57:40 51°14.523 2°51.824 18.8164 0.061012 0.351651 -3.020363
2011-06-01 07:57:45 51°14.518 2°51.814 18.8145 0.061012 0.351651 -3.020363
2011-06-01 07:57:50 51°14.514 2°51.803 18.8119 0.061012 0.351658 -3.020363
2011-06-01 07:57:55 51°14.51 2°51.792 18.8118 0.061012 0.351658 -3.020363
2011-06-01 07:58:00 51°14.506 2°51.782 18.8083 0.061012 0.351658 -3.020363
2011-06-01 07:58:05 51°14.502 2°51.771 18.8178 0.061012 0.351651 -3.020363
2011-06-01 07:58:10 51°14.498 2°51.76 18.8242 0.061012 0.351658 -3.020363
2011-06-01 07:58:15 51°14.494 2°51.749 18.8278 0.061012 0.351658 -3.020363
2011-06-01 07:58:20 51°14.49 2°51.738 18.8141 0.061012 0.351658 -3.020363
2011-06-01 07:58:25 51°14.486 2°51.728 18.8171 0.061012 0.351658 -3.020363
2011-06-01 07:58:30 51°14.482 2°51.717 18.8211 0.061012 0.351658 -3.020363
2011-06-01 07:58:35 51°14.478 2°51.706 18.8147 0.061012 0.351664 -3.020363
2011-06-01 07:58:40 51°14.474 2°51.695 18.8356 0.061012 0.351671 -3.020363
2011-06-01 07:58:45 51°14.47 2°51.684 18.8435 0.061012 0.351671 -3.020363
2011-06-01 07:58:50 51°14.466 2°51.673 18.8374 0.061012 0.351671 -3.020363
2011-06-01 07:58:55 51°14.463 2°51.662 18.8379 0.061012 0.351671 -3.020363
2011-06-01 07:59:00 51°14.459 2°51.651 18.8251 0.061012 0.351678 -3.020363
2011-06-01 07:59:05 51°14.455 2°51.641 18.8357 0.061012 0.351678 -3.020363
2011-06-01 07:59:10 51°14.451 2°51.63 18.8226 0.061012 0.351678 -3.020363
2011-06-01 07:59:15 51°14.447 2°51.619 18.8137 0.061012 0.351678 -3.020363
2011-06-01 07:59:20 51°14.443 2°51.608 18.8225 0.061012 0.351678 -3.020363
2011-06-01 07:59:25 51°14.439 2°51.597 18.8068 0.061012 0.351678 -3.020363
2011-06-01 07:59:30 51°14.436 2°51.586 18.8305 0.061012 0.351678 -3.020363
2011-06-01 07:59:35 51°14.432 2°51.576 18.8195 0.061012 0.351678 -3.020363
2011-06-01 07:59:40 51°14.428 2°51.564 18.8105 0.061012 0.351678 -3.020363
2011-06-01 07:59:45 51°14.425 2°51.554 18.8251 0.061012 0.351678 -3.020363
2011-06-01 07:59:50 51°14.422 2°51.543 18.8185 0.061012 0.351678 -3.020363
2011-06-01 07:59:55 51°14.418 2°51.532 18.8302 0.061012 0.351684 -3.020363
2011-06-01 08:00:00 51°14.415 2°51.521 18.831 0.061012 0.351684 -3.020363
2011-06-01 08:00:05 51°14.412 2°51.51 18.8203 0.061012 0.351684 -3.020363
2011-06-01 08:00:10 51°14.409 2°51.5 18.8323 0.061012 0.351684 -3.020363
2011-06-01 08:00:15 51°14.407 2°51.489 18.8298 0.061012 0.351684 -3.020363
2011-06-01 08:00:19 51°14.404 2°51.48 18.8185 0.061012 0.351684 -3.020363
2011-06-01 08:00:25 51°14.402 2°51.467 18.8154 0.061012 0.351691 -3.020363
2011-06-01 08:00:30 51°14.399 2°51.457 18.8299 0.061012 0.351691 -3.020363
2011-06-01 08:00:35 51°14.397 2°51.446 18.8511 0.061012 0.351691 -3.020363
2011-06-01 08:00:40 51°14.395 2°51.435 18.8271 0.061012 0.351691 -3.020363
2011-06-01 08:00:45 51°14.393 2°51.424 18.8258 0.061012 0.351691 -3.020363
2011-06-01 08:00:50 51°14.391 2°51.413 18.8202 0.061012 0.351691 -3.020363
2011-06-01 08:00:55 51°14.389 2°51.403 18.8379 0.061012 0.351691 -3.020363
2011-06-01 08:00:59 51°14.387 2°51.394 18.8307 0.061012 0.351698 -3.020363
2011-06-01 08:01:05 51°14.385 2°51.381 18.8323 0.061012 0.351698 -3.020363
2011-06-01 08:01:10 51°14.383 2°51.37 18.8454 0.061012 0.351698 -3.020363
2011-06-01 08:01:15 51°14.381 2°51.36 18.8307 0.061012 0.351698 -3.020363
2011-06-01 08:01:19 51°14.379 2°51.351 18.8404 0.061012 0.351698 -3.020363
2011-06-01 08:01:25 51°14.376 2°51.339 18.8358 0.061012 0.351704 -3.020363
2011-06-01 08:01:30 51°14.374 2°51.328 18.8298 0.061012 0.351704 -3.020363
2011-06-01 08:01:35 51°14.372 2°51.319 18.8391 0.061012 0.351704 -3.020363
2011-06-01 08:01:40 51°14.37 2°51.308 18.8463 0.061012 0.351704 -3.020363
2011-06-01 08:01:45 51°14.368 2°51.298 18.8426 0.061012 0.351704 -3.020363
2011-06-01 08:01:50 51°14.365 2°51.288 18.8384 0.061012 0.351704 -3.020363
2011-06-01 08:01:55 51°14.363 2°51.279 18.8381 0.061012 0.351704 -3.020363
2011-06-01 08:02:00 51°14.361 2°51.269 18.8461 0.061012 0.351711 -3.020363
2011-06-01 08:02:05 51°14.359 2°51.259 18.8572 0.061012 0.351711 -3.020363
2011-06-01 08:02:10 51°14.357 2°51.25 18.8673 0.061012 0.351711 -3.020363
2011-06-01 08:02:15 51°14.354 2°51.24 18.8319 0.061012 0.351711 -3.020363
2011-06-01 08:02:20 51°14.352 2°51.231 18.8392 0.061012 0.351711 -3.020363
2011-06-01 08:02:25 51°14.349 2°51.222 18.8332 0.061012 0.351711 -3.020363
2011-06-01 08:02:30 51°14.347 2°51.213 18.8485 0.061012 0.351711 -3.020363
2011-06-01 08:02:35 51°14.345 2°51.204 18.8494 0.061012 0.351718 -3.020363
2011-06-01 08:02:40 51°14.343 2°51.195 18.8442 0.061012 0.351718 -3.020363
2011-06-01 08:02:45 51°14.34 2°51.186 18.8519 0.061012 0.351718 -3.020363
2011-06-01 08:02:50 51°14.338 2°51.177 18.8393 0.061012 0.351718 -3.020363
2011-06-01 08:02:55 51°14.335 2°51.168 18.8451 0.061012 0.351718 -3.020363
2011-06-01 08:03:00 51°14.333 2°51.16 18.8416 0.061012 0.351718 -3.020363
2011-06-01 08:03:05 51°14.33 2°51.151 18.8451 0.061012 0.351718 -3.020363
2011-06-01 08:03:10 51°14.328 2°51.142 18.8603 0.061012 0.351718 -3.020363
2011-06-01 08:03:15 51°14.325 2°51.134 18.852 0.061012 0.351718 -3.020363
2011-06-01 08:03:20 51°14.322 2°51.125 18.8601 0.061012 0.351724 -3.020363
2011-06-01 08:03:25 51°14.319 2°51.117 18.8557 0.061012 0.351724 -3.020363
2011-06-01 08:03:30 51°14.316 2°51.109 18.857 0.061012 0.351724 -3.020363
2011-06-01 08:03:35 51°14.313 2°51.1 18.8696 0.061012 0.351724 -3.020363
2011-06-01 08:03:40 51°14.311 2°51.092 18.8388 0.061012 0.351724 -3.020363
2011-06-01 08:03:45 51°14.307 2°51.084 18.8656 0.061012 0.351731 -3.020363
2011-06-01 08:03:50 51°14.304 2°51.076 18.8695 0.061012 0.351731 -3.020363
2011-06-01 08:03:55 51°14.301 2°51.068 18.8626 0.061012 0.351731 -3.020363
2011-06-01 08:04:00 51°14.298 2°51.06 18.8633 0.061012 0.351731 -3.020363
2011-06-01 08:04:05 51°14.295 2°51.052 18.8622 0.061012 0.351738 -3.020363
2011-06-01 08:04:10 51°14.292 2°51.044 18.8748 0.061012 0.351731 -3.020363
2011-06-01 08:04:15 51°14.288 2°51.036 18.8676 0.061012 0.351738 -3.020363
2011-06-01 08:04:20 51°14.285 2°51.028 18.874 0.061012 0.351738 -3.020363
2011-06-01 08:04:25 51°14.282 2°51.021 18.8723 0.061012 0.351738 -3.020363
2011-06-01 08:04:30 51°14.279 2°51.013 18.8806 0.061012 0.351738 -3.020363
2011-06-01 08:04:35 51°14.275 2°51.005 18.8782 0.061012 0.351738 -3.020363
2011-06-01 08:04:40 51°14.272 2°50.997 18.8727 0.061012 0.351738 -3.020363
2011-06-01 08:04:45 51°14.269 2°50.99 18.8705 0.061012 0.351738 -3.020363
2011-06-01 08:04:50 51°14.265 2°50.982 18.8861 0.061012 0.351744 -3.020363
2011-06-01 08:04:55 51°14.262 2°50.974 18.8703 0.061012 0.351738 -3.020363
2011-06-01 08:04:59 51°14.259 2°50.968 18.858 0.061012 0.351744 -3.020363
2011-06-01 08:05:05 51°14.255 2°50.959 18.8632 0.061012 0.351744 -3.020363
2011-06-01 08:05:10 51°14.252 2°50.951 18.8694 0.061012 0.351744 -3.020363
2011-06-01 08:05:15 51°14.249 2°50.944 18.8859 0.061012 0.351744 -3.020363
2011-06-01 08:05:19 51°14.246 2°50.937 18.8832 0.061012 0.351744 -3.020363
2011-06-01 08:05:25 51°14.242 2°50.928 18.8904 0.061012 0.351744 -3.020363
2011-06-01 08:05:30 51°14.239 2°50.92 18.8716 0.061012 0.351751 -3.020363
2011-06-01 08:05:35 51°14.236 2°50.912 18.8695 0.061012 0.351751 -3.020363
2011-06-01 08:05:40 51°14.232 2°50.905 18.8719 0.061012 0.351751 -3.020363
2011-06-01 08:05:45 51°14.229 2°50.897 18.875 0.061012 0.351751 -3.020363
2011-06-01 08:05:50 51°14.226 2°50.889 18.8824 0.061012 0.351751 -3.020363
2011-06-01 08:05:55 51°14.223 2°50.881 18.8738 0.061012 0.351751 -3.020363
2011-06-01 08:05:59 51°14.221 2°50.875 18.888 0.061012 0.351758 -3.020363
2011-06-01 08:06:05 51°14.217 2°50.865 18.8913 0.061012 0.351758 -3.020363
2011-06-01 08:06:10 51°14.215 2°50.857 18.8737 0.061012 0.351758 -3.020363
2011-06-01 08:06:15 51°14.212 2°50.849 18.8834 0.061012 0.351758 -3.020363
2011-06-01 08:06:19 51°14.21 2°50.843 18.882 0.061012 0.351758 -3.020363
2011-06-01 08:06:25 51°14.207 2°50.833 18.8922 0.061012 0.351758 -3.020363
2011-06-01 08:06:30 51°14.204 2°50.825 18.888 0.061012 0.351758 -3.020363
2011-06-01 08:06:35 51°14.202 2°50.817 18.8903 0.061012 0.351764 -3.020363
2011-06-01 08:06:40 51°14.199 2°50.808 18.8788 0.061012 0.351764 -3.020363
2011-06-01 08:06:45 51°14.197 2°50.8 18.8885 0.061012 0.351764 -3.020363
2011-06-01 08:06:50 51°14.195 2°50.792 18.887 0.061012 0.351764 -3.020363
2011-06-01 08:06:55 51°14.192 2°50.784 18.8827 0.061012 0.351764 -3.020363
2011-06-01 08:07:00 51°14.19 2°50.776 18.892 0.061012 0.351764 -3.020363
2011-06-01 08:07:05 51°14.188 2°50.768 18.902 0.061012 0.351764 -3.020363
2011-06-01 08:07:10 51°14.186 2°50.759 18.8921 0.061012 0.351771 -3.020363
2011-06-01 08:07:15 51°14.184 2°50.751 18.8998 0.061012 0.351771 -3.020363
2011-06-01 08:07:20 51°14.182 2°50.742 18.8906 0.061012 0.351771 -3.020363
2011-06-01 08:07:25 51°14.18 2°50.734 18.8944 0.061012 0.351771 -3.020363
2011-06-01 08:07:30 51°14.178 2°50.726 18.9065 0.061012 0.351778 -3.020363
2011-06-01 08:07:35 51°14.176 2°50.718 18.892 0.061012 0.351771 -3.020363
2011-06-01 08:07:40 51°14.174 2°50.709 18.8979 0.061012 0.351778 -3.020363
2011-06-01 08:07:45 51°14.172 2°50.701 18.9109 0.061012 0.351778 -3.020363
2011-06-01 08:07:50 51°14.17 2°50.693 18.9037 0.061012 0.351778 -3.020363
2011-06-01 08:07:55 51°14.168 2°50.685 18.9035 0.061012 0.351778 -3.020363
2011-06-01 08:07:59 51°14.166 2°50.678 18.9066 0.061012 0.351778 -3.020363
2011-06-01 08:08:05 51°14.164 2°50.668 18.9054 0.061012 0.351778 -3.020363
2011-06-01 08:08:10 51°14.162 2°50.66 18.8941 0.061012 0.351778 -3.020363
2011-06-01 08:08:15 51°14.16 2°50.651 18.8997 0.061012 0.351785 -3.020363
2011-06-01 08:08:19 51°14.159 2°50.645 18.8986 0.061012 0.351785 -3.020363
2011-06-01 08:08:25 51°14.156 2°50.635 18.9061 0.061012 0.351785 -3.020363
2011-06-01 08:08:30 51°14.154 2°50.627 18.8995 0.061012 0.351785 -3.020363
2011-06-01 08:08:35 51°14.153 2°50.618 18.9111 0.061012 0.351785 -3.020363
2011-06-01 08:08:39 51°14.151 2°50.612 18.9125 0.061012 0.351785 -3.020363
2011-06-01 08:08:45 51°14.148 2°50.602 18.9174 0.061012 0.351785 -3.020363
2011-06-01 08:08:50 51°14.146 2°50.594 18.918 0.061012 0.351785 -3.020363
2011-06-01 08:08:55 51°14.144 2°50.586 18.9071 0.061012 0.351791 -3.020363
2011-06-01 08:09:00 51°14.142 2°50.578 18.9227 0.061012 0.351785 -3.020363
2011-06-01 08:09:05 51°14.14 2°50.569 18.9104 0.061012 0.351791 -3.020363
2011-06-01 08:09:10 51°14.138 2°50.561 18.9229 0.061012 0.351791 -3.020363
2011-06-01 08:09:15 51°14.136 2°50.553 18.9161 0.061012 0.351791 -3.020363
2011-06-01 08:09:19 51°14.134 2°50.546 18.9123 0.061012 0.351791 -3.020363
2011-06-01 08:09:25 51°14.132 2°50.537 18.9235 0.061012 0.351798 -3.020363
2011-06-01 08:09:30 51°14.13 2°50.529 18.9274 0.061012 0.351791 -3.020363
2011-06-01 08:09:35 51°14.128 2°50.52 18.9147 0.061012 0.351798 -3.020363
2011-06-01 08:09:40 51°14.126 2°50.512 18.9155 0.061012 0.351798 -3.020363
2011-06-01 08:09:45 51°14.124 2°50.504 18.9114 0.061012 0.351798 -3.020363
2011-06-01 08:09:50 51°14.122 2°50.496 18.9241 0.061012 0.351798 -3.020363
2011-06-01 08:09:55 51°14.12 2°50.487 18.9265 0.061012 0.351798 -3.020363
2011-06-01 08:09:59 51°14.118 2°50.481 18.932 0.061012 0.351798 -3.020363
2011-06-01 08:10:05 51°14.115 2°50.471 18.9204 0.061012 0.351798 -3.020363
2011-06-01 08:10:10 51°14.113 2°50.463 18.9191 0.061012 0.351805 -3.020363
2011-06-01 08:10:15 51°14.111 2°50.454 18.9353 0.061012 0.351798 -3.020363
2011-06-01 08:10:19 51°14.109 2°50.447 18.9444 0.061012 0.351798 -3.020363
2011-06-01 08:10:25 51°14.107 2°50.438 18.9214 0.061012 0.351805 -3.020363
2011-06-01 08:10:30 51°14.105 2°50.429 18.9221 0.061012 0.351805 -3.020363
2011-06-01 08:10:35 51°14.102 2°50.421 18.9122 0.061012 0.351805 -3.020363
2011-06-01 08:10:39 51°14.101 2°50.414 18.9316 0.061012 0.351805 -3.020363
2011-06-01 08:10:45 51°14.098 2°50.404 18.9233 0.061012 0.351805 -3.020363
2011-06-01 08:10:50 51°14.096 2°50.396 18.9327 0.061012 0.351811 -3.020363
2011-06-01 08:10:55 51°14.093 2°50.388 18.924 0.061012 0.351811 -3.020363
2011-06-01 08:10:59 51°14.092 2°50.382 18.9355 0.061012 0.351811 -3.020363
2011-06-01 08:11:05 51°14.089 2°50.372 18.9332 0.061012 0.351811 -3.020363
2011-06-01 08:11:10 51°14.086 2°50.364 18.9323 0.061012 0.351811 -3.020363
2011-06-01 08:11:15 51°14.084 2°50.356 18.9337 0.061012 0.351811 -3.020363
2011-06-01 08:11:20 51°14.081 2°50.348 18.9346 0.061012 0.351811 -3.020363
2011-06-01 08:11:25 51°14.079 2°50.339 18.9271 0.061012 0.351818 -3.020363
2011-06-01 08:11:30 51°14.077 2°50.332 18.9311 0.061012 0.351818 -3.020363
2011-06-01 08:11:35 51°14.074 2°50.323 18.9324 0.061012 0.351818 -3.020363
2011-06-01 08:11:39 51°14.072 2°50.317 18.9375 0.061012 0.351818 -3.020363
2011-06-01 08:11:45 51°14.069 2°50.307 18.9352 0.061012 0.351818 -3.020363
2011-06-01 08:11:50 51°14.067 2°50.299 18.9414 0.061012 0.351818 -3.020363
2011-06-01 08:11:55 51°14.064 2°50.291 18.9545 0.061012 0.351818 -3.020363
2011-06-01 08:11:59 51°14.063 2°50.285 18.9557 0.061012 0.351825 -3.020363
2011-06-01 08:12:05 51°14.059 2°50.275 18.96 0.061012 0.351825 -3.020363
2011-06-01 08:12:10 51°14.057 2°50.267 18.9373 0.061012 0.351825 -3.020363
2011-06-01 08:12:15 51°14.054 2°50.259 18.9447 0.061012 0.351825 -3.020363
2011-06-01 08:12:19 51°14.052 2°50.253 18.9366 0.061012 0.351825 -3.020363
2011-06-01 08:12:24 51°14.05 2°50.245 18.9657 0.061012 0.351825 -3.020363
2011-06-01 08:12:30 51°14.047 2°50.235 18.9395 0.061012 0.351825 -3.020363
2011-06-01 08:12:35 51°14.044 2°50.227 18.9589 0.061012 0.351825 -3.020363
2011-06-01 08:12:39 51°14.042 2°50.221 18.9513 0.061012 0.351825 -3.020363
2011-06-01 08:12:44 51°14.039 2°50.213 18.959 0.061012 0.351825 -3.020363
2011-06-01 08:12:50 51°14.036 2°50.204 18.9423 0.061012 0.351831 -3.020363
2011-06-01 08:12:55 51°14.033 2°50.196 18.9652 0.061012 0.351831 -3.020363
2011-06-01 08:12:59 51°14.031 2°50.19 18.9584 0.061012 0.351831 -3.020363
2011-06-01 08:13:05 51°14.028 2°50.18 18.9672 0.061012 0.351831 -3.020363
2011-06-01 08:13:10 51°14.025 2°50.172 18.9532 0.061012 0.351838 -3.020363
2011-06-01 08:13:14 51°14.023 2°50.166 18.959 0.061012 0.351831 -3.020363
2011-06-01 08:13:19 51°14.021 2°50.158 18.9583 0.061012 0.351831 -3.020363
2011-06-01 08:13:24 51°14.018 2°50.15 18.9619 0.061012 0.351838 -3.020363
2011-06-01 08:13:29 51°14.015 2°50.142 18.9564 0.061012 0.351838 -3.020363
2011-06-01 08:13:35 51°14.012 2°50.133 18.95 0.061012 0.351838 -3.020363
2011-06-01 08:13:40 51°14.009 2°50.125 18.9536 0.061012 0.351838 -3.020363
2011-06-01 08:13:44 51°14.007 2°50.119 18.9712 0.061012 0.351838 -3.020363
2011-06-01 08:13:50 51°14.004 2°50.11 18.956 0.061012 0.351838 -3.020363
2011-06-01 08:13:55 51°14.001 2°50.102 18.9678 0.061012 0.351845 -3.020363
2011-06-01 08:14:00 51°13.999 2°50.094 18.9567 0.061012 0.351845 -3.020363
2011-06-01 08:14:05 51°13.996 2°50.086 18.9635 0.061012 0.351845 -3.020363
2011-06-01 08:14:10 51°13.993 2°50.078 18.964 0.061012 0.351845 -3.020363
2011-06-01 08:14:15 51°13.991 2°50.071 18.975 0.061012 0.351845 -3.020363
2011-06-01 08:14:20 51°13.988 2°50.063 18.9619 0.061012 0.351845 -3.020363
2011-06-01 08:14:24 51°13.986 2°50.056 18.9609 0.061012 0.351845 -3.020363
2011-06-01 08:14:30 51°13.983 2°50.046 18.9772 0.061012 0.351845 -3.020363
2011-06-01 08:14:35 51°13.98 2°50.039 18.9811 0.061012 0.351851 -3.020363
2011-06-01 08:14:40 51°13.978 2°50.031 18.9784 0.061012 0.351851 -3.020363
2011-06-01 08:14:44 51°13.976 2°50.024 18.9643 0.061012 0.351851 -3.020363
2011-06-01 08:14:50 51°13.972 2°50.015 18.9745 0.061012 0.351851 -3.020363
2011-06-01 08:14:55 51°13.97 2°50.007 18.98 0.061012 0.351851 -3.020363
2011-06-01 08:15:00 51°13.967 2°49.999 18.9839 0.061012 0.351851 -3.020363
2011-06-01 08:15:04 51°13.965 2°49.993 18.9771 0.061012 0.351858 -3.020363
2011-06-01 08:15:10 51°13.962 2°49.984 18.9771 0.061012 0.351858 -3.020363
2011-06-01 08:15:15 51°13.96 2°49.976 18.977 0.061012 0.351858 -3.020363
2011-06-01 08:15:20 51°13.957 2°49.968 18.9817 0.061012 0.351858 -3.020363
2011-06-01 08:15:24 51°13.955 2°49.962 18.986 0.061012 0.351858 -3.020363
2011-06-01 08:15:30 51°13.952 2°49.952 18.9908 0.061012 0.351858 -3.020363
2011-06-01 08:15:35 51°13.949 2°49.944 18.9782 0.061012 0.351865 -3.020363
2011-06-01 08:15:40 51°13.947 2°49.936 18.9954 0.061012 0.351858 -3.020363
2011-06-01 08:15:45 51°13.944 2°49.928 18.99 0.061012 0.351858 -3.020363
2011-06-01 08:15:50 51°13.942 2°49.92 18.9831 0.061012 0.351858 -3.020363
2011-06-01 08:15:55 51°13.939 2°49.912 18.9959 0.061012 0.351858 -3.020363
2011-06-01 08:16:00 51°13.937 2°49.904 18.988 0.061012 0.351865 -3.020363
2011-06-01 08:16:05 51°13.935 2°49.896 18.9895 0.061012 0.351865 -3.020363
2011-06-01 08:16:10 51°13.932 2°49.888 18.9927 0.061012 0.351865 -3.020363
2011-06-01 08:16:15 51°13.93 2°49.88 18.9945 0.061012 0.351865 -3.020363
2011-06-01 08:16:20 51°13.927 2°49.872 19.0017 0.061012 0.351865 -3.020363
2011-06-01 08:16:25 51°13.925 2°49.864 18.9955 0.061012 0.351871 -3.020363
2011-06-01 08:16:30 51°13.922 2°49.856 18.983 0.061012 0.351871 -3.020363
2011-06-01 08:16:35 51°13.92 2°49.848 18.9958 0.061012 0.351871 -3.020363
2011-06-01 08:16:40 51°13.917 2°49.84 19.002 0.061012 0.351871 -3.020363
2011-06-01 08:16:45 51°13.915 2°49.832 19.0107 0.061012 0.351871 -3.020363
2011-06-01 08:16:50 51°13.913 2°49.823 18.9893 0.061012 0.351871 -3.020363
2011-06-01 08:16:55 51°13.911 2°49.815 18.9886 0.060909 0.351266 -3.020363
2011-06-01 08:17:00 51°13.908 2°49.807 18.9924 0.061012 0.351878 -3.020363
2011-06-01 08:17:04 51°13.906 2°49.8 18.9886 0.061012 0.351878 -3.020363
2011-06-01 08:17:10 51°13.904 2°49.791 19.0012 0.061012 0.351878 -3.020363
2011-06-01 08:17:15 51°13.901 2°49.782 19.0047 0.061012 0.351878 -3.020363
2011-06-01 08:17:20 51°13.899 2°49.774 18.9893 0.061012 0.351878 -3.020363
2011-06-01 08:17:24 51°13.897 2°49.767 18.993 0.061012 0.351878 -3.020363
2011-06-01 08:17:30 51°13.895 2°49.757 18.999 0.061012 0.351885 -3.020363
2011-06-01 08:17:35 51°13.892 2°49.749 19.0032 0.061012 0.351885 -3.020363
2011-06-01 08:17:40 51°13.89 2°49.741 19.0037 0.061012 0.351885 -3.020363
2011-06-01 08:17:44 51°13.888 2°49.734 19.018 0.061012 0.351885 -3.020363
2011-06-01 08:17:49 51°13.885 2°49.726 19.0068 0.061012 0.351885 -3.020363
2011-06-01 08:17:55 51°13.883 2°49.716 19.0122 0.061012 0.351885 -3.020363
2011-06-01 08:18:00 51°13.88 2°49.708 18.8274 0.061012 0.351885 -3.020363
2011-06-01 08:18:04 51°13.878 2°49.701 18.884 0.061012 0.351885 -3.020363
2011-06-01 08:18:09 51°13.876 2°49.693 18.879 0.061012 0.351892 -3.020363
2011-06-01 08:18:15 51°13.873 2°49.683 18.8937 0.061012 0.351892 -3.020363
2011-06-01 08:18:20 51°13.87 2°49.675 18.8983 0.061012 0.351892 -3.020363
2011-06-01 08:18:24 51°13.869 2°49.668 18.9066 0.061012 0.351892 -3.020363
2011-06-01 08:18:29 51°13.866 2°49.66 18.9052 0.061012 0.351892 -3.020363
2011-06-01 08:18:34 51°13.864 2°49.652 18.9103 0.061012 0.351892 -3.020363
2011-06-01 08:18:39 51°13.861 2°49.644 18.913 0.061012 0.351892 -3.020363
2011-06-01 08:18:44 51°13.859 2°49.636 18.9172 0.061012 0.351898 -3.020363
2011-06-01 08:18:49 51°13.856 2°49.628 18.9206 0.061012 0.351898 -3.020363
2011-06-01 08:18:55 51°13.853 2°49.618 18.9232 0.061012 0.351892 -3.020363
2011-06-01 08:19:00 51°13.851 2°49.61 18.9277 0.061012 0.351898 -3.020363
2011-06-01 08:19:04 51°13.849 2°49.603 18.9274 0.061012 0.351892 -3.020363
2011-06-01 08:19:10 51°13.846 2°49.594 18.9316 0.061012 0.351898 -3.020363
2011-06-01 08:19:15 51°13.843 2°49.586 18.933 0.061012 0.351898 -3.020363
2011-06-01 08:19:20 51°13.841 2°49.578 18.9335 0.061012 0.351898 -3.020363
2011-06-01 08:19:24 51°13.838 2°49.572 18.9373 0.061012 0.351898 -3.020363
2011-06-01 08:19:29 51°13.836 2°49.564 18.938 0.060909 0.351286 -3.020363
2011-06-01 08:19:35 51°13.833 2°49.554 18.9415 0.061012 0.351898 -3.020363
2011-06-01 08:19:40 51°13.83 2°49.546 18.9419 0.061012 0.351905 -3.020363
2011-06-01 08:19:44 51°13.828 2°49.54 18.9452 0.061012 0.351905 -3.020363
2011-06-01 08:19:50 51°13.825 2°49.53 18.9465 0.061012 0.351905 -3.020363
2011-06-01 08:19:55 51°13.822 2°49.522 18.9468 0.061012 0.351905 -3.020363
2011-06-01 08:20:00 51°13.819 2°49.515 18.9505 0.061012 0.351905 -3.020363
2011-06-01 08:20:04 51°13.817 2°49.508 18.9504 0.061012 0.351905 -3.020363
2011-06-01 08:20:09 51°13.815 2°49.5 18.9506 0.061012 0.351905 -3.020363
2011-06-01 08:20:15 51°13.811 2°49.491 18.9545 0.061012 0.351912 -3.020363
2011-06-01 08:20:20 51°13.809 2°49.482 18.9578 0.061012 0.351912 -3.020363
2011-06-01 08:20:24 51°13.807 2°49.476 18.9586 0.061012 0.351912 -3.020363
2011-06-01 08:20:30 51°13.803 2°49.466 18.9613 0.061012 0.351912 -3.020363
2011-06-01 08:20:34 51°13.801 2°49.46 18.9618 0.061012 0.351912 -3.020363
2011-06-01 08:20:40 51°13.798 2°49.45 18.9592 0.061012 0.351912 -3.020363
2011-06-01 08:20:44 51°13.796 2°49.444 18.9597 0.061012 0.351912 -3.020363
2011-06-01 08:20:49 51°13.793 2°49.436 18.9635 0.061012 0.351912 -3.020363
2011-06-01 08:20:54 51°13.79 2°49.428 18.9631 0.061012 0.351912 -3.020363
2011-06-01 08:21:00 51°13.787 2°49.419 18.9609 0.061012 0.351912 -3.020363
2011-06-01 08:21:04 51°13.785 2°49.412 18.9689 0.060909 0.3513 -3.020363
2011-06-01 08:21:09 51°13.782 2°49.404 18.9669 0.060909 0.351306 -3.020363
2011-06-01 08:21:14 51°13.779 2°49.397 18.97 0.060909 0.351306 -3.020363
2011-06-01 08:21:20 51°13.776 2°49.387 18.9723 0.060909 0.351306 -3.020363
2011-06-01 08:21:24 51°13.773 2°49.38 18.9772 0.061012 0.351918 -3.020363
2011-06-01 08:21:29 51°13.771 2°49.373 18.9789 0.061012 0.351918 -3.020363
2011-06-01 08:21:34 51°13.768 2°49.365 18.9793 0.061012 0.351918 -3.020363
2011-06-01 08:21:40 51°13.765 2°49.356 18.9785 0.061012 0.351918 -3.020363
2011-06-01 08:21:44 51°13.762 2°49.349 18.9812 0.061012 0.351918 -3.020363
2011-06-01 08:21:49 51°13.76 2°49.341 18.9862 0.060909 0.351306 -3.020363
2011-06-01 08:21:55 51°13.757 2°49.332 18.9872 0.061012 0.351925 -3.020363
2011-06-01 08:22:00 51°13.754 2°49.323 18.9901 0.061012 0.351925 -3.020363
2011-06-01 08:22:04 51°13.752 2°49.317 18.9913 0.061012 0.351925 -3.020363
2011-06-01 08:22:08 51°13.75 2°49.311 18.9969 0.061012 0.351925 -3.020363
2011-06-01 08:22:15 51°13.746 2°49.299 18.9984 0.061012 0.351925 -3.020363
2011-06-01 08:22:20 51°13.744 2°49.291 18.9867 0.061012 0.351925 -3.020363
2011-06-01 08:22:24 51°13.742 2°49.285 18.9913 0.061012 0.351925 -3.020363
2011-06-01 08:22:29 51°13.739 2°49.277 18.9922 0.061012 0.351932 -3.020363
2011-06-01 08:22:35 51°13.736 2°49.267 18.9913 0.060909 0.35132 -3.020363
2011-06-01 08:22:40 51°13.733 2°49.259 19.0023 0.061012 0.351932 -3.020363
2011-06-01 08:22:44 51°13.731 2°49.253 18.9978 0.061012 0.351932 -3.020363
2011-06-01 08:22:50 51°13.729 2°49.243 19.0058 0.061012 0.351932 -3.020363
2011-06-01 08:22:54 51°13.727 2°49.236 19.0045 0.060909 0.35132 -3.020363
2011-06-01 08:23:00 51°13.724 2°49.226 19.0084 0.061012 0.351932 -3.020363
2011-06-01 08:23:04 51°13.722 2°49.22 19.0054 0.061012 0.351932 -3.020363
2011-06-01 08:23:09 51°13.72 2°49.212 19.0108 0.060909 0.35132 -3.020363
2011-06-01 08:23:14 51°13.718 2°49.203 19.0091 0.060909 0.35132 -3.020363
2011-06-01 08:23:19 51°13.716 2°49.195 19.015 0.060909 0.35132 -3.020363
2011-06-01 08:23:24 51°13.714 2°49.187 19.0172 0.061012 0.351938 -3.020363
2011-06-01 08:23:29 51°13.712 2°49.179 19.021 0.060909 0.351326 -3.020363
2011-06-01 08:23:34 51°13.71 2°49.171 19.0155 0.061012 0.351938 -3.020363
2011-06-01 08:23:40 51°13.708 2°49.161 19.0247 0.061012 0.351938 -3.020363
2011-06-01 08:23:44 51°13.707 2°49.154 18.9931 0.061012 0.351938 -3.020363
2011-06-01 08:23:49 51°13.706 2°49.146 19.2057 0.061012 0.351938 -3.020363
2011-06-01 08:23:54 51°13.704 2°49.137 19.2172 0.061012 0.351938 -3.020363
2011-06-01 08:23:59 51°13.703 2°49.129 19.2053 0.061012 0.351945 -3.020363
2011-06-01 08:24:04 51°13.702 2°49.121 19.1976 0.061012 0.351945 -3.020363
2011-06-01 08:24:08 51°13.701 2°49.114 19.1827 0.060909 0.351333 -3.020363
2011-06-01 08:24:14 51°13.699 2°49.104 19.1935 0.061012 0.351952 -3.020363
2011-06-01 08:24:20 51°13.698 2°49.094 19.1757 0.061012 0.351952 -3.020363
2011-06-01 08:24:24 51°13.697 2°49.088 19.1753 0.061012 0.351945 -3.020363
2011-06-01 08:24:29 51°13.696 2°49.079 19.1646 0.061012 0.351945 -3.020363
2011-06-01 08:24:34 51°13.695 2°49.071 19.1753 0.060909 0.351333 -3.020363
2011-06-01 08:24:39 51°13.694 2°49.063 19.1694 0.060909 0.351333 -3.020363
2011-06-01 08:24:44 51°13.694 2°49.054 19.1609 0.060909 0.351333 -3.020363
2011-06-01 08:24:49 51°13.693 2°49.046 19.1605 0.061012 0.351945 -3.020363
2011-06-01 08:24:55 51°13.692 2°49.036 19.1677 0.061012 0.351952 -3.020363
2011-06-01 08:25:00 51°13.691 2°49.028 19.167 0.060909 0.35134 -3.020363
2011-06-01 08:25:04 51°13.69 2°49.021 19.1655 0.061012 0.351952 -3.020363
2011-06-01 08:25:09 51°13.689 2°49.013 19.1684 0.060909 0.351346 -3.020363
2011-06-01 08:25:14 51°13.689 2°49.005 19.1688 0.060909 0.351346 -3.020363
2011-06-01 08:25:20 51°13.688 2°48.995 19.1702 0.061012 0.351958 -3.020363
2011-06-01 08:25:24 51°13.687 2°48.988 19.1656 0.060909 0.351346 -3.020363
2011-06-01 08:25:29 51°13.686 2°48.98 19.1591 0.061012 0.351958 -3.020363
2011-06-01 08:25:34 51°13.686 2°48.972 19.1649 0.060909 0.351346 -3.020363
2011-06-01 08:25:39 51°13.685 2°48.963 19.1631 0.061012 0.351958 -3.020363
2011-06-01 08:25:45 51°13.684 2°48.953 19.1736 0.061012 0.351958 -3.020363
2011-06-01 08:25:49 51°13.683 2°48.946 19.1591 0.061012 0.351958 -3.020363
2011-06-01 08:25:54 51°13.682 2°48.938 19.1667 0.060909 0.351346 -3.020363
2011-06-01 08:26:00 51°13.681 2°48.928 19.1725 0.061012 0.351958 -3.020363
2011-06-01 08:26:04 51°13.68 2°48.921 19.1679 0.060909 0.351346 -3.020363
2011-06-01 08:26:09 51°13.68 2°48.913 19.1672 0.061012 0.351958 -3.020363
2011-06-01 08:26:14 51°13.679 2°48.905 19.1633 0.061012 0.351958 -3.020363
2011-06-01 08:26:19 51°13.678 2°48.896 19.1687 0.061012 0.351958 -3.020363
2011-06-01 08:26:25 51°13.677 2°48.886 19.1685 0.060909 0.351353 -3.020363
2011-06-01 08:26:29 51°13.676 2°48.88 19.1747 0.061012 0.351965 -3.020363
2011-06-01 08:26:35 51°13.675 2°48.87 19.1748 0.060909 0.351353 -3.020363
2011-06-01 08:26:39 51°13.674 2°48.863 19.173 0.060909 0.351353 -3.020363
2011-06-01 08:26:44 51°13.673 2°48.855 19.1774 0.060909 0.351353 -3.020363
2011-06-01 08:26:49 51°13.672 2°48.846 19.1658 0.060909 0.351353 -3.020363
2011-06-01 08:26:54 51°13.671 2°48.838 19.1776 0.061012 0.351965 -3.020363
2011-06-01 08:27:00 51°13.67 2°48.828 19.1688 0.060909 0.351353 -3.020363
2011-06-01 08:27:04 51°13.669 2°48.821 19.1796 0.061012 0.351965 -3.020363
2011-06-01 08:27:10 51°13.668 2°48.811 19.1758 0.060909 0.35136 -3.020363
2011-06-01 08:27:14 51°13.667 2°48.804 19.1766 0.060909 0.35136 -3.020363
2011-06-01 08:27:19 51°13.667 2°48.796 19.1808 0.060909 0.35136 -3.020363
2011-06-01 08:27:25 51°13.665 2°48.786 19.185 0.060909 0.35136 -3.020363
2011-06-01 08:27:29 51°13.665 2°48.779 19.1754 0.060909 0.35136 -3.020363
2011-06-01 08:27:34 51°13.664 2°48.771 19.181 0.060909 0.35136 -3.020363
2011-06-01 08:27:39 51°13.663 2°48.762 19.1862 0.060909 0.35136 -3.020363
2011-06-01 08:27:44 51°13.662 2°48.754 19.1868 0.060909 0.351366 -3.020363
2011-06-01 08:27:49 51°13.661 2°48.746 19.1774 0.060909 0.351366 -3.020363
2011-06-01 08:27:54 51°13.66 2°48.737 19.1826 0.060909 0.35136 -3.020363
2011-06-01 08:28:00 51°13.659 2°48.727 19.183 0.061012 0.351978 -3.020363
2011-06-01 08:28:04 51°13.658 2°48.72 19.1738 0.061012 0.351978 -3.020363
2011-06-01 08:28:08 51°13.658 2°48.714 19.1794 0.060909 0.351366 -3.020363
2011-06-01 08:28:14 51°13.656 2°48.704 19.1822 0.060909 0.351366 -3.020363
2011-06-01 08:28:20 51°13.655 2°48.693 19.1881 0.060909 0.351366 -3.020363
2011-06-01 08:28:24 51°13.654 2°48.687 19.1899 0.060909 0.351366 -3.020363
2011-06-01 08:28:30 51°13.653 2°48.677 19.1957 0.060909 0.351366 -3.020363
2011-06-01 08:28:34 51°13.652 2°48.67 19.187 0.060909 0.351373 -3.020363
2011-06-01 08:28:41 51°13.651 2°48.658 19.1899 0.060909 0.351373 -3.020363
2011-06-01 08:28:44 51°13.65 2°48.653 19.1876 0.060909 0.351373 -3.020363
2011-06-01 08:28:48 51°13.649 2°48.646 19.1848 0.060909 0.351373 -3.020363
2011-06-01 08:28:54 51°13.648 2°48.636 19.1777 0.060909 0.351373 -3.020363
2011-06-01 08:28:59 51°13.647 2°48.627 19.1855 0.060909 0.351373 -3.020363
2011-06-01 08:29:05 51°13.646 2°48.617 19.1874 0.060909 0.351373 -3.020363
2011-06-01 08:29:10 51°13.644 2°48.609 19.1873 0.060909 0.351373 -3.020363
2011-06-01 08:29:15 51°13.643 2°48.6 19.1941 0.060909 0.35138 -3.020363
2011-06-01 08:29:20 51°13.642 2°48.592 19.1944 0.060909 0.35138 -3.020363
2011-06-01 08:29:25 51°13.641 2°48.584 19.1913 0.061012 0.351992 -3.020363
2011-06-01 08:29:29 51°13.64 2°48.577 19.1885 0.061012 0.351992 -3.020363
2011-06-01 08:29:35 51°13.638 2°48.567 19.1995 0.061012 0.351992 -3.020363
2011-06-01 08:29:40 51°13.636 2°48.559 19.1897 0.060909 0.35138 -3.020363
2011-06-01 08:29:45 51°13.635 2°48.55 19.1967 0.060909 0.35138 -3.020363
2011-06-01 08:29:50 51°13.633 2°48.542 19.1981 0.060909 0.35138 -3.020363
2011-06-01 08:29:55 51°13.631 2°48.533 19.2061 0.060909 0.351386 -3.020363
2011-06-01 08:30:00 51°13.629 2°48.525 19.2022 0.060909 0.351386 -3.020363
2011-06-01 08:30:05 51°13.627 2°48.517 19.2011 0.060909 0.351386 -3.020363
2011-06-01 08:30:10 51°13.625 2°48.508 19.2077 0.061012 0.351999 -3.020363
2011-06-01 08:30:15 51°13.623 2°48.5 19.2077 0.061012 0.351999 -3.020363
2011-06-01 08:30:20 51°13.621 2°48.492 19.2061 0.060909 0.351386 -3.020363
2011-06-01 08:30:25 51°13.619 2°48.484 19.2066 0.060909 0.351386 -3.020363
2011-06-01 08:30:30 51°13.617 2°48.475 19.2054 0.060909 0.351386 -3.020363
2011-06-01 08:30:35 51°13.615 2°48.467 19.1942 0.060909 0.351386 -3.020363
2011-06-01 08:30:40 51°13.613 2°48.459 19.2097 0.061012 0.351999 -3.020363
2011-06-01 08:30:45 51°13.61 2°48.451 19.2021 0.061012 0.351999 -3.020363
2011-06-01 08:30:50 51°13.608 2°48.442 19.2032 0.061012 0.352005 -3.020363
2011-06-01 08:30:55 51°13.606 2°48.434 19.2053 0.060909 0.351393 -3.020363
2011-06-01 08:31:00 51°13.603 2°48.426 19.2055 0.061012 0.352005 -3.020363
2011-06-01 08:31:05 51°13.601 2°48.417 19.1985 0.060909 0.351393 -3.020363
2011-06-01 08:31:09 51°13.599 2°48.411 19.1996 0.060909 0.351393 -3.020363
2011-06-01 08:31:15 51°13.596 2°48.401 19.2068 0.060909 0.351393 -3.020363
2011-06-01 08:31:20 51°13.594 2°48.393 19.2074 0.060909 0.351393 -3.020363
2011-06-01 08:31:25 51°13.592 2°48.384 19.2113 0.060909 0.351393 -3.020363
2011-06-01 08:31:29 51°13.59 2°48.378 19.2104 0.060909 0.351393 -3.020363
2011-06-01 08:31:35 51°13.587 2°48.368 19.216 0.060909 0.351393 -3.020363
2011-06-01 08:31:40 51°13.585 2°48.36 19.2084 0.060909 0.351393 -3.020363
2011-06-01 08:31:45 51°13.583 2°48.351 19.2158 0.060909 0.351393 -3.020363
2011-06-01 08:31:49 51°13.581 2°48.345 19.2131 0.060909 0.351393 -3.020363
2011-06-01 08:31:54 51°13.579 2°48.337 19.2171 0.060909 0.3514 -3.020363
2011-06-01 08:32:00 51°13.576 2°48.327 19.2157 0.060909 0.3514 -3.020363
2011-06-01 08:32:05 51°13.574 2°48.318 19.2236 0.060909 0.3514 -3.020363
2011-06-01 08:32:09 51°13.572 2°48.312 19.224 0.060909 0.3514 -3.020363
2011-06-01 08:32:15 51°13.57 2°48.302 19.2113 0.060909 0.3514 -3.020363
2011-06-01 08:32:20 51°13.568 2°48.293 19.2197 0.060909 0.3514 -3.020363
2011-06-01 08:32:25 51°13.566 2°48.285 19.2103 0.060909 0.3514 -3.020363
2011-06-01 08:32:29 51°13.564 2°48.278 19.2231 0.060909 0.3514 -3.020363
2011-06-01 08:32:35 51°13.563 2°48.268 19.2168 0.060909 0.351406 -3.020363
2011-06-01 08:32:40 51°13.561 2°48.259 19.2222 0.060909 0.351406 -3.020363
2011-06-01 08:32:45 51°13.56 2°48.251 19.2149 0.060909 0.351406 -3.020363
2011-06-01 08:32:49 51°13.559 2°48.244 19.2226 0.060909 0.351406 -3.020363
2011-06-01 08:32:55 51°13.557 2°48.235 19.2186 0.060909 0.351406 -3.020363
2011-06-01 08:33:00 51°13.557 2°48.226 19.2244 0.060909 0.351406 -3.020363
2011-06-01 08:33:05 51°13.556 2°48.218 19.2245 0.060909 0.351406 -3.020363
2011-06-01 08:33:10 51°13.555 2°48.209 19.2332 0.060909 0.351413 -3.020363
2011-06-01 08:33:15 51°13.554 2°48.201 19.2295 0.060909 0.351413 -3.020363
2011-06-01 08:33:20 51°13.554 2°48.193 19.2251 0.060909 0.351413 -3.020363
2011-06-01 08:33:25 51°13.554 2°48.185 19.2307 0.060909 0.351413 -3.020363
2011-06-01 08:33:29 51°13.553 2°48.178 19.2332 0.060909 0.351413 -3.020363
2011-06-01 08:33:35 51°13.553 2°48.168 19.2397 0.060909 0.351413 -3.020363
2011-06-01 08:33:40 51°13.552 2°48.16 19.2398 0.060909 0.35142 -3.020363
2011-06-01 08:33:45 51°13.552 2°48.152 19.2339 0.060909 0.35142 -3.020363
2011-06-01 08:33:49 51°13.552 2°48.145 19.238 0.060909 0.35142 -3.020363
2011-06-01 08:33:55 51°13.551 2°48.135 19.234 0.060909 0.35142 -3.020363
2011-06-01 08:34:00 51°13.551 2°48.127 19.2371 0.060909 0.35142 -3.020363
2011-06-01 08:34:05 51°13.551 2°48.119 19.2299 0.060909 0.35142 -3.020363
2011-06-01 08:34:09 51°13.551 2°48.113 19.2321 0.060909 0.35142 -3.020363
2011-06-01 08:34:14 51°13.55 2°48.105 19.2422 0.060909 0.35142 -3.020363
2011-06-01 08:34:20 51°13.55 2°48.095 19.2371 0.060909 0.35142 -3.020363
2011-06-01 08:34:25 51°13.55 2°48.087 19.2411 0.060909 0.35142 -3.020363
2011-06-01 08:34:29 51°13.55 2°48.08 19.2346 0.060909 0.35142 -3.020363
2011-06-01 08:34:34 51°13.55 2°48.072 19.2385 0.060909 0.351426 -3.020363
2011-06-01 08:34:39 51°13.55 2°48.064 19.2472 0.060909 0.351426 -3.020363
2011-06-01 08:34:45 51°13.55 2°48.054 19.24 0.060909 0.351426 -3.020363
2011-06-01 08:34:49 51°13.549 2°48.048 19.2416 0.060909 0.351426 -3.020363
2011-06-01 08:34:54 51°13.549 2°48.04 19.2434 0.060909 0.351426 -3.020363
2011-06-01 08:35:00 51°13.55 2°48.03 19.2466 0.060909 0.351426 -3.020363
2011-06-01 08:35:05 51°13.55 2°48.022 19.2402 0.060909 0.351426 -3.020363
2011-06-01 08:35:09 51°13.55 2°48.015 19.251 0.060909 0.351433 -3.020363
2011-06-01 08:35:14 51°13.55 2°48.007 19.2499 0.060909 0.351426 -3.020363
2011-06-01 08:35:20 51°13.55 2°47.998 19.2489 0.060909 0.351426 -3.020363
2011-06-01 08:35:25 51°13.551 2°47.99 19.2449 0.060909 0.351433 -3.020363
2011-06-01 08:35:29 51°13.551 2°47.983 19.2506 0.060909 0.351433 -3.020363
2011-06-01 08:35:34 51°13.552 2°47.975 19.2512 0.060909 0.351433 -3.020363
2011-06-01 08:35:40 51°13.553 2°47.966 19.2465 0.060909 0.351433 -3.020363
2011-06-01 08:35:45 51°13.554 2°47.958 19.2567 0.060909 0.351433 -3.020363
2011-06-01 08:35:49 51°13.554 2°47.952 19.2536 0.060909 0.351433 -3.020363
2011-06-01 08:35:55 51°13.555 2°47.942 19.2611 0.060909 0.351433 -3.020363
2011-06-01 08:36:00 51°13.556 2°47.934 19.251 0.060909 0.351433 -3.020363
2011-06-01 08:36:05 51°13.557 2°47.926 19.2539 0.060909 0.351433 -3.020363
2011-06-01 08:36:09 51°13.558 2°47.92 19.2632 0.060909 0.35144 -3.020363
2011-06-01 08:36:14 51°13.559 2°47.913 19.2569 0.060909 0.35144 -3.020363
2011-06-01 08:36:20 51°13.56 2°47.904 19.2476 0.060909 0.35144 -3.020363
2011-06-01 08:36:25 51°13.561 2°47.897 19.2574 0.060909 0.35144 -3.020363
2011-06-01 08:36:29 51°13.562 2°47.892 19.2571 0.060909 0.35144 -3.020363
2011-06-01 08:36:34 51°13.563 2°47.885 19.2648 0.060909 0.35144 -3.020363
2011-06-01 08:36:40 51°13.564 2°47.877 19.2618 0.060909 0.351447 -3.020363
2011-06-01 08:36:45 51°13.565 2°47.871 19.2647 0.060909 0.35144 -3.020363
2011-06-01 08:36:49 51°13.566 2°47.867 19.2645 0.060909 0.35144 -3.020363
2011-06-01 08:36:54 51°13.566 2°47.861 19.2552 0.060909 0.351447 -3.020363
2011-06-01 08:36:59 51°13.567 2°47.855 19.2676 0.060909 0.351447 -3.020363
2011-06-01 08:37:05 51°13.568 2°47.849 19.2577 0.060909 0.351447 -3.020363
2011-06-01 08:37:09 51°13.569 2°47.844 19.2616 0.060909 0.351447 -3.020363
2011-06-01 08:37:14 51°13.57 2°47.839 19.2697 0.060909 0.351447 -3.020363
2011-06-01 08:37:20 51°13.57 2°47.833 19.2678 0.060909 0.351453 -3.020363
2011-06-01 08:37:25 51°13.571 2°47.828 19.2632 0.060909 0.351447 -3.020363
2011-06-01 08:37:29 51°13.572 2°47.823 19.2724 0.060909 0.351447 -3.020363
2011-06-01 08:37:34 51°13.572 2°47.819 19.2719 0.060909 0.351453 -3.020363
2011-06-01 08:37:40 51°13.573 2°47.813 19.2726 0.060909 0.351453 -3.020363
2011-06-01 08:37:45 51°13.574 2°47.809 19.2713 0.060909 0.351453 -3.020363
2011-06-01 08:37:49 51°13.574 2°47.805 19.2775 0.060909 0.351453 -3.020363
2011-06-01 08:37:55 51°13.574 2°47.8 19.2696 0.060909 0.351453 -3.020363
2011-06-01 08:38:00 51°13.575 2°47.796 19.2728 0.060909 0.351453 -3.020363
2011-06-01 08:38:05 51°13.575 2°47.792 19.2782 0.060909 0.351453 -3.020363
2011-06-01 08:38:09 51°13.576 2°47.788 19.2732 0.060909 0.35146 -3.020363
2011-06-01 08:38:15 51°13.576 2°47.783 19.2754 0.060909 0.351453 -3.020363
2011-06-01 08:38:20 51°13.577 2°47.78 19.2769 0.060909 0.351453 -3.020363
2011-06-01 08:38:25 51°13.577 2°47.776 19.2803 0.060909 0.351453 -3.020363
2011-06-01 08:38:29 51°13.577 2°47.773 19.285 0.060909 0.35146 -3.020363
2011-06-01 08:38:34 51°13.578 2°47.769 19.2703 0.060909 0.35146 -3.020363
2011-06-01 08:38:40 51°13.579 2°47.763 19.2935 0.060909 0.35146 -3.020363
2011-06-01 08:38:45 51°13.58 2°47.759 19.3 0.060909 0.35146 -3.020363
2011-06-01 08:38:49 51°13.581 2°47.755 19.2962 0.060909 0.35146 -3.020363
2011-06-01 08:38:54 51°13.583 2°47.748 19.2901 0.060909 0.35146 -3.020363
2011-06-01 08:39:00 51°13.586 2°47.74 19.2851 0.060909 0.35146 -3.020363
2011-06-01 08:39:05 51°13.589 2°47.733 19.2824 0.060909 0.35146 -3.020363
2011-06-01 08:39:09 51°13.591 2°47.727 19.2862 0.060909 0.35146 -3.020363
2011-06-01 08:39:14 51°13.595 2°47.719 19.2814 0.060909 0.35146 -3.020363
2011-06-01 08:39:19 51°13.598 2°47.711 19.2843 0.060909 0.35146 -3.020363
2011-06-01 08:39:25 51°13.603 2°47.701 19.2812 0.060909 0.35146 -3.020363
2011-06-01 08:39:29 51°13.607 2°47.695 19.2815 0.060909 0.35146 -3.020363
2011-06-01 08:39:34 51°13.611 2°47.687 19.2669 0.060909 0.35146 -3.020363
2011-06-01 08:39:39 51°13.616 2°47.68 19.2816 0.060909 0.351467 -3.020363
2011-06-01 08:39:45 51°13.623 2°47.671 19.2918 0.060909 0.351467 -3.020363
2011-06-01 08:39:50 51°13.628 2°47.665 19.2844 0.060909 0.35146 -3.020363
2011-06-01 08:39:54 51°13.633 2°47.659 19.2923 0.060909 0.351467 -3.020363
2011-06-01 08:40:00 51°13.64 2°47.652 19.2903 0.060909 0.351467 -3.020363
2011-06-01 08:40:05 51°13.646 2°47.646 19.3016 0.060909 0.351467 -3.020363
2011-06-01 08:40:10 51°13.653 2°47.641 19.2918 0.060909 0.351473 -3.020363
2011-06-01 08:40:14 51°13.658 2°47.636 19.2991 0.060909 0.351473 -3.020363
2011-06-01 08:40:20 51°13.665 2°47.63 19.3047 0.060909 0.351473 -3.020363
2011-06-01 08:40:25 51°13.672 2°47.624 19.3047 0.060909 0.351473 -3.020363
2011-06-01 08:40:29 51°13.677 2°47.62 19.2964 0.060909 0.351473 -3.020363
2011-06-01 08:40:34 51°13.684 2°47.615 19.2919 0.060909 0.351473 -3.020363
2011-06-01 08:40:40 51°13.692 2°47.609 19.308 0.060909 0.351473 -3.020363
2011-06-01 08:40:45 51°13.698 2°47.603 19.2951 0.060909 0.351473 -3.020363
2011-06-01 08:40:49 51°13.704 2°47.599 19.2923 0.060909 0.351473 -3.020363
2011-06-01 08:40:53 51°13.709 2°47.595 19.3044 0.060909 0.351473 -3.020363
2011-06-01 08:41:00 51°13.719 2°47.588 19.297 0.060909 0.351473 -3.020363
2011-06-01 08:41:05 51°13.725 2°47.584 19.3085 0.060909 0.351473 -3.020363
2011-06-01 08:41:09 51°13.731 2°47.58 19.3025 0.060909 0.351473 -3.020363
2011-06-01 08:41:14 51°13.738 2°47.575 19.3045 0.060909 0.351473 -3.020363
2011-06-01 08:41:19 51°13.745 2°47.571 19.3111 0.060909 0.351473 -3.020363
2011-06-01 08:41:25 51°13.753 2°47.565 19.3048 0.060909 0.35148 -3.020363
2011-06-01 08:41:29 51°13.758 2°47.56 19.309 0.060909 0.35148 -3.020363
2011-06-01 08:41:34 51°13.765 2°47.555 19.3093 0.060909 0.351487 -3.020363
2011-06-01 08:41:40 51°13.773 2°47.547 19.299 0.060909 0.351487 -3.020363
2011-06-01 08:41:45 51°13.779 2°47.541 19.3033 0.060909 0.351487 -3.020363
2011-06-01 08:41:49 51°13.783 2°47.536 19.3132 0.060909 0.351487 -3.020363
2011-06-01 08:41:54 51°13.789 2°47.53 19.3058 0.060909 0.351487 -3.020363
2011-06-01 08:41:59 51°13.794 2°47.524 19.3158 0.060909 0.351487 -3.020363
2011-06-01 08:42:05 51°13.8 2°47.517 19.2999 0.060909 0.35148 -3.020363
2011-06-01 08:42:09 51°13.804 2°47.513 19.309 0.060909 0.351487 -3.020363
2011-06-01 08:42:14 51°13.809 2°47.507 19.311 0.060909 0.351487 -3.020363
2011-06-01 08:42:19 51°13.814 2°47.502 19.319 0.060909 0.351487 -3.020363
2011-06-01 08:42:25 51°13.82 2°47.495 19.2877 0.060909 0.35148 -3.020363
2011-06-01 08:42:29 51°13.824 2°47.491 19.3168 0.060909 0.35148 -3.020363
2011-06-01 08:42:34 51°13.828 2°47.486 19.3115 0.060909 0.351487 -3.020363
2011-06-01 08:42:40 51°13.834 2°47.48 19.3144 0.060909 0.351487 -3.020363
2011-06-01 08:42:45 51°13.838 2°47.475 19.3129 0.060909 0.351487 -3.020363
2011-06-01 08:42:49 51°13.842 2°47.471 19.3208 0.060909 0.351487 -3.020363
2011-06-01 08:42:54 51°13.846 2°47.466 19.299 0.060909 0.351487 -3.020363
2011-06-01 08:43:00 51°13.852 2°47.461 19.3154 0.060909 0.351487 -3.020363
2011-06-01 08:43:05 51°13.856 2°47.457 19.3127 0.060909 0.351487 -3.020363
2011-06-01 08:43:09 51°13.86 2°47.454 19.3236 0.060909 0.351487 -3.020363
2011-06-01 08:43:14 51°13.864 2°47.451 19.3147 0.060909 0.351487 -3.020363
2011-06-01 08:43:20 51°13.869 2°47.447 19.296 0.060909 0.351487 -3.020363
2011-06-01 08:43:25 51°13.874 2°47.445 19.3119 0.060909 0.351487 -3.020363
2011-06-01 08:43:29 51°13.878 2°47.443 19.3053 0.060909 0.351493 -3.020363
2011-06-01 08:43:34 51°13.883 2°47.442 19.3217 0.060909 0.351493 -3.020363
2011-06-01 08:43:39 51°13.887 2°47.442 19.3188 0.060909 0.351493 -3.020363
2011-06-01 08:43:44 51°13.892 2°47.441 19.2957 0.060909 0.351493 -3.020363
2011-06-01 08:43:50 51°13.899 2°47.442 19.3147 0.060909 0.351493 -3.020363
2011-06-01 08:43:55 51°13.903 2°47.443 19.3285 0.060909 0.351493 -3.020363
2011-06-01 08:44:00 51°13.908 2°47.445 19.3105 0.060909 0.351493 -3.020363
2011-06-01 08:44:05 51°13.912 2°47.447 19.3235 0.060909 0.3515 -3.020363
2011-06-01 08:44:10 51°13.917 2°47.45 19.3256 0.060909 0.3515 -3.020363
2011-06-01 08:44:15 51°13.921 2°47.454 19.3094 0.060909 0.3515 -3.020363
2011-06-01 08:44:20 51°13.925 2°47.458 19.3177 0.060909 0.3515 -3.020363
2011-06-01 08:44:25 51°13.929 2°47.462 19.3204 0.060909 0.351507 -3.020363
2011-06-01 08:44:30 51°13.932 2°47.467 19.326 0.060909 0.351507 -3.020363
2011-06-01 08:44:35 51°13.936 2°47.473 19.3207 0.060909 0.351507 -3.020363
2011-06-01 08:44:40 51°13.939 2°47.478 19.3213 0.060909 0.351513 -3.020363
2011-06-01 08:44:45 51°13.942 2°47.484 19.3325 0.060909 0.351513 -3.020363
2011-06-01 08:44:50 51°13.946 2°47.491 19.3434 0.060909 0.351513 -3.020363
2011-06-01 08:44:55 51°13.949 2°47.497 19.3266 0.060909 0.351513 -3.020363
2011-06-01 08:45:00 51°13.952 2°47.503 19.3307 0.060909 0.351513 -3.020363
2011-06-01 08:45:05 51°13.955 2°47.51 19.332 0.060909 0.351513 -3.020363
2011-06-01 08:45:10 51°13.958 2°47.517 19.3371 0.060909 0.351507 -3.020363
2011-06-01 08:45:14 51°13.961 2°47.522 19.3324 0.060909 0.351507 -3.020363
2011-06-01 08:45:20 51°13.964 2°47.531 19.3402 0.060909 0.351507 -3.020363
2011-06-01 08:45:25 51°13.967 2°47.538 19.3438 0.060909 0.351507 -3.020363
2011-06-01 08:45:30 51°13.97 2°47.546 19.3441 0.060909 0.351507 -3.020363
2011-06-01 08:45:34 51°13.972 2°47.552 19.3426 0.060909 0.351507 -3.020363
2011-06-01 08:45:40 51°13.975 2°47.561 19.331 0.060909 0.351507 -3.020363
2011-06-01 08:45:45 51°13.978 2°47.568 19.3358 0.060909 0.351507 -3.020363
2011-06-01 08:45:50 51°13.98 2°47.576 19.3377 0.060909 0.351507 -3.020363
2011-06-01 08:45:55 51°13.983 2°47.583 19.3484 0.060909 0.351507 -3.020363
2011-06-01 08:46:00 51°13.985 2°47.591 19.3387 0.060909 0.351513 -3.020363
2011-06-01 08:46:05 51°13.987 2°47.6 19.3472 0.060909 0.351513 -3.020363
2011-06-01 08:46:10 51°13.989 2°47.608 19.3491 0.060909 0.351513 -3.020363
2011-06-01 08:46:15 51°13.991 2°47.616 19.3392 0.060909 0.351513 -3.020363
2011-06-01 08:46:20 51°13.993 2°47.624 19.3462 0.060909 0.351513 -3.020363
2011-06-01 08:46:25 51°13.995 2°47.632 19.3432 0.060909 0.351513 -3.020363
2011-06-01 08:46:30 51°13.998 2°47.64 19.338 0.060909 0.351513 -3.020363
2011-06-01 08:46:35 51°13.999 2°47.649 19.3392 0.060909 0.351513 -3.020363
2011-06-01 08:46:40 51°14.001 2°47.658 19.3389 0.060909 0.351513 -3.020363
2011-06-01 08:46:45 51°14.002 2°47.667 19.3561 0.060909 0.351513 -3.020363
2011-06-01 08:46:50 51°14.004 2°47.675 19.3473 0.060909 0.351513 -3.020363
2011-06-01 08:46:54 51°14.005 2°47.682 19.3342 0.060909 0.351513 -3.020363
2011-06-01 08:47:00 51°14.007 2°47.693 19.3441 0.060909 0.351513 -3.020363
2011-06-01 08:47:05 51°14.008 2°47.701 19.351 0.060909 0.35152 -3.020363
2011-06-01 08:47:10 51°14.01 2°47.71 19.3401 0.060909 0.351513 -3.020363
2011-06-01 08:47:15 51°14.011 2°47.719 19.3587 0.060909 0.35152 -3.020363
2011-06-01 08:47:20 51°14.012 2°47.728 19.3511 0.060909 0.35152 -3.020363
2011-06-01 08:47:25 51°14.013 2°47.736 19.3542 0.060909 0.35152 -3.020363
2011-06-01 08:47:30 51°14.014 2°47.745 19.352 0.060909 0.35152 -3.020363
2011-06-01 08:47:35 51°14.015 2°47.754 19.3542 0.060909 0.35152 -3.020363
2011-06-01 08:47:40 51°14.015 2°47.764 19.3516 0.060909 0.35152 -3.020363
2011-06-01 08:47:45 51°14.015 2°47.773 19.3644 0.060909 0.351527 -3.020363
2011-06-01 08:47:50 51°14.015 2°47.783 19.3596 0.060909 0.351527 -3.020363
2011-06-01 08:47:55 51°14.015 2°47.792 19.3593 0.060909 0.351527 -3.020363
2011-06-01 08:48:00 51°14.015 2°47.801 19.3616 0.060909 0.351527 -3.020363
2011-06-01 08:48:05 51°14.015 2°47.81 19.357 0.060909 0.351527 -3.020363
2011-06-01 08:48:10 51°14.015 2°47.819 19.3637 0.060909 0.351527 -3.020363
2011-06-01 08:48:14 51°14.014 2°47.827 19.354 0.060909 0.351527 -3.020363
2011-06-01 08:48:20 51°14.013 2°47.839 19.3624 0.060909 0.351527 -3.020363
2011-06-01 08:48:25 51°14.012 2°47.848 19.3709 0.060909 0.351527 -3.020363
2011-06-01 08:48:30 51°14.011 2°47.858 19.3604 0.060909 0.351527 -3.020363
2011-06-01 08:48:35 51°14.01 2°47.867 19.3595 0.060909 0.351527 -3.020363
2011-06-01 08:48:40 51°14.008 2°47.876 19.3651 0.060909 0.351527 -3.020363
2011-06-01 08:48:45 51°14.007 2°47.886 19.367 0.060909 0.351527 -3.020363
2011-06-01 08:48:50 51°14.005 2°47.895 19.3688 0.060909 0.351527 -3.020363
2011-06-01 08:48:55 51°14.004 2°47.905 19.3691 0.060909 0.351527 -3.020363
2011-06-01 08:49:00 51°14.002 2°47.914 19.3675 0.060909 0.351533 -3.020363
2011-06-01 08:49:05 51°14 2°47.924 19.3713 0.060909 0.351533 -3.020363
2011-06-01 08:49:10 51°13.998 2°47.933 19.3779 0.060909 0.351533 -3.020363
2011-06-01 08:49:14 51°13.996 2°47.94 19.3742 0.060909 0.351533 -3.020363
2011-06-01 08:49:20 51°13.993 2°47.951 19.3709 0.060909 0.351533 -3.020363
2011-06-01 08:49:25 51°13.991 2°47.961 19.3644 0.060909 0.351533 -3.020363
2011-06-01 08:49:30 51°13.989 2°47.97 19.378 0.060909 0.351533 -3.020363
2011-06-01 08:49:34 51°13.987 2°47.977 19.3785 0.060909 0.351533 -3.020363
2011-06-01 08:49:40 51°13.984 2°47.988 19.371 0.060909 0.351533 -3.020363
2011-06-01 08:49:45 51°13.981 2°47.997 19.3747 0.060909 0.351533 -3.020363
2011-06-01 08:49:50 51°13.979 2°48.006 19.3753 0.060909 0.351533 -3.020363
2011-06-01 08:49:54 51°13.977 2°48.014 19.3745 0.060909 0.351533 -3.020363
2011-06-01 08:50:00 51°13.973 2°48.025 19.3838 0.060909 0.35154 -3.020363
2011-06-01 08:50:05 51°13.971 2°48.034 19.3796 0.060909 0.35154 -3.020363
2011-06-01 08:50:10 51°13.968 2°48.043 19.3778 0.060909 0.35154 -3.020363
2011-06-01 08:50:14 51°13.966 2°48.05 19.3832 0.060909 0.35154 -3.020363
2011-06-01 08:50:19 51°13.964 2°48.059 19.3861 0.060909 0.35154 -3.020363
2011-06-01 08:50:25 51°13.961 2°48.07 19.3753 0.060909 0.35154 -3.020363
2011-06-01 08:50:30 51°13.959 2°48.079 19.3941 0.060909 0.35154 -3.020363
2011-06-01 08:50:34 51°13.957 2°48.086 19.3892 0.060909 0.35154 -3.020363
2011-06-01 08:50:39 51°13.955 2°48.095 19.3938 0.060909 0.35154 -3.020363
2011-06-01 08:50:44 51°13.952 2°48.105 19.3954 0.060909 0.35154 -3.020363
2011-06-01 08:50:50 51°13.949 2°48.116 19.3973 0.060909 0.351547 -3.020363
2011-06-01 08:50:54 51°13.947 2°48.123 19.4003 0.060909 0.351547 -3.020363
2011-06-01 08:50:59 51°13.944 2°48.132 19.3881 0.060909 0.351547 -3.020363
2011-06-01 08:51:04 51°13.942 2°48.141 19.3962 0.060909 0.351547 -3.020363
2011-06-01 08:51:10 51°13.94 2°48.153 19.3889 0.060909 0.351547 -3.020363
2011-06-01 08:51:14 51°13.938 2°48.16 19.3899 0.060909 0.351547 -3.020363
2011-06-01 08:51:20 51°13.935 2°48.171 19.405 0.060909 0.351547 -3.020363
2011-06-01 08:51:25 51°13.933 2°48.18 19.392 0.060909 0.351547 -3.020363
2011-06-01 08:51:30 51°13.931 2°48.189 19.4021 0.060909 0.351553 -3.020363
2011-06-01 08:51:34 51°13.929 2°48.196 19.393 0.060909 0.351553 -3.020363
2011-06-01 08:51:40 51°13.926 2°48.207 19.3938 0.060909 0.351553 -3.020363
2011-06-01 08:51:45 51°13.924 2°48.215 19.4023 0.060909 0.351553 -3.020363
2011-06-01 08:51:50 51°13.922 2°48.224 19.3987 0.060909 0.351553 -3.020363
2011-06-01 08:51:54 51°13.92 2°48.23 19.4042 0.060909 0.351553 -3.020363
2011-06-01 08:51:59 51°13.918 2°48.239 19.4087 0.060909 0.351553 -3.020363
2011-06-01 08:52:05 51°13.916 2°48.248 19.4022 0.060909 0.351553 -3.020363
2011-06-01 08:52:10 51°13.914 2°48.256 19.4008 0.060909 0.35156 -3.020363
2011-06-01 08:52:14 51°13.912 2°48.263 19.4055 0.060909 0.35156 -3.020363
2011-06-01 08:52:20 51°13.91 2°48.272 19.4087 0.060909 0.351553 -3.020363
2011-06-01 08:52:25 51°13.908 2°48.281 19.4146 0.060909 0.351553 -3.020363
2011-06-01 08:52:30 51°13.906 2°48.288 19.4138 0.060909 0.35156 -3.020363
2011-06-01 08:52:34 51°13.904 2°48.295 19.4078 0.060909 0.35156 -3.020363
2011-06-01 08:52:39 51°13.902 2°48.303 19.4162 0.060909 0.35156 -3.020363
2011-06-01 08:52:45 51°13.9 2°48.312 19.3997 0.060909 0.35156 -3.020363
2011-06-01 08:52:50 51°13.899 2°48.32 19.4206 0.060909 0.35156 -3.020363
2011-06-01 08:52:54 51°13.897 2°48.326 19.4121 0.060909 0.35156 -3.020363
2011-06-01 08:52:59 51°13.895 2°48.334 19.4173 0.060909 0.35156 -3.020363
2011-06-01 08:53:04 51°13.893 2°48.342 19.4239 0.060909 0.351567 -3.020363
2011-06-01 08:53:10 51°13.891 2°48.351 19.4171 0.060909 0.351567 -3.020363
2011-06-01 08:53:14 51°13.89 2°48.357 19.4124 0.060909 0.351567 -3.020363
2011-06-01 08:53:19 51°13.888 2°48.365 19.4134 0.060909 0.351567 -3.020363
2011-06-01 08:53:24 51°13.886 2°48.372 19.4148 0.060909 0.351567 -3.020363
2011-06-01 08:53:29 51°13.885 2°48.38 19.422 0.060909 0.351567 -3.020363